GFSWCAN_sfc_temp_078.txt.gz
Temp
48 48 48 48 48 48 48 49 49 49 49 49 49 49 50 50 51 48 45 48 43 38 41 47 49 43 43 43 35 40 39 39 35 30 31 29 26 37 37 42 39 34 32 32 33 30 30 53 54 48 52 54 58 59
47 47 47 47 47 48 48 48 48 48 48 49 49 49 49 50 50 50 42 48 49 42 41 49 53 55 53 52 44 42 40 42 40 35 32 32 29 30 36 31 46 35 40 37 38 37 50 52 52 55 55 56 58 58
47 47 47 47 47 47 48 48 48 48 48 49 49 49 49 50 50 49 44 46 45 40 40 42 44 52 56 54 53 40 40 48 43 44 37 36 33 37 29 35 40 45 46 41 42 48 50 52 53 55 57 57 58 60
47 46 47 47 47 48 48 48 48 48 49 48 49 49 49 50 50 49 43 46 44 38 34 38 52 50 57 55 53 50 48 48 48 44 39 34 30 42 35 42 40 44 46 43 41 48 50 52 54 55 57 58 59 59
46 46 46 47 48 47 47 47 47 48 48 48 49 49 49 49 49 48 45 46 45 41 34 35 47 52 56 53 52 49 48 45 42 39 35 34 38 40 38 38 38 49 44 38 38 50 50 51 58 58 56 57 57 59
46 46 47 47 48 47 47 47 47 47 48 48 49 49 49 49 49 44 38 44 47 47 40 33 43 48 51 53 51 46 46 46 44 39 36 40 43 39 32 34 45 50 51 51 51 54 54 54 53 56 54 54 55 55
47 47 47 47 47 47 47 47 47 47 48 48 48 49 49 48 45 40 38 42 48 47 40 34 35 43 49 48 46 43 44 43 43 40 37 38 39 39 33 32 46 51 50 53 55 53 48 51 51 51 52 51 50 49
46 47 47 47 47 47 47 47 47 47 47 48 49 48 47 48 48 42 45 49 48 44 42 32 33 37 43 38 38 42 39 39 39 37 36 36 38 36 33 41 46 49 51 52 53 51 52 51 51 50 49 47 40 38
46 46 46 46 47 47 47 47 48 48 48 48 48 48 46 43 40 42 49 49 48 43 33 27 27 30 40 37 37 37 37 33 36 28 34 37 34 31 40 42 43 44 46 52 49 50 49 48 48 47 44 40 36 33
46 46 45 46 47 47 47 47 47 47 47 48 45 39 32 39 48 46 42 38 39 39 36 26 31 32 36 32 32 33 30 27 31 33 38 30 31 44 42 41 42 41 41 48 44 42 43 41 38 37 35 35 33 31
46 46 46 46 46 47 48 48 48 48 48 41 37 33 42 46 43 39 32 32 35 31 34 32 32 31 36 31 30 31 33 33 28 30 31 31 31 38 40 39 39 40 38 39 42 43 43 39 34 31 29 29 29 29
47 46 46 46 46 47 47 47 47 44 41 41 41 44 42 39 35 31 26 30 30 29 31 30 34 34 33 35 28 30 33 32 26 34 30 29 31 34 34 33 35 36 36 35 36 34 34 33 32 30 28 27 26 26
46 46 46 46 46 47 47 47 47 48 47 45 40 35 35 31 24 20 20 27 28 30 33 32 31 32 34 37 31 30 30 29 36 31 30 28 31 32 32 32 31 33 32 31 30 31 30 29 29 28 26 26 26 25
46 46 46 46 46 46 46 46 47 47 42 35 29 21 21 22 25 25 27 30 30 32 31 29 32 33 33 30 31 29 33 33 30 27 24 27 28 29 30 31 30 29 29 29 28 28 27 26 26 26 26 26 25 24
46 46 46 45 46 46 46 46 47 43 36 28 29 20 23 26 26 27 28 29 29 31 32 30 33 34 31 31 31 31 29 24 23 20 25 27 29 29 28 29 28 27 26 26 26 26 25 25 25 24 25 26 25 24
47 45 43 45 46 46 46 46 43 41 34 28 25 22 23 24 22 24 24 24 29 29 31 32 33 31 30 28 25 23 23 18 20 25 27 28 27 26 26 26 26 26 26 25 25 25 25 24 23 23 24 24 23 22
45 38 45 45 46 46 45 41 36 31 28 26 21 23 20 22 21 22 23 24 29 28 30 31 24 23 29 23 22 24 20 23 26 27 28 27 26 26 26 26 26 25 25 25 25 25 25 25 25 24 22 23 23 23
39 40 44 46 45 43 38 36 30 27 22 23 20 21 20 18 20 21 22 25 26 28 29 24 27 19 14 17 16 23 23 24 26 26 27 27 26 26 27 25 26 26 25 25 25 25 25 24 23 22 22 22 22 22
41 42 44 46 43 36 31 30 30 21 21 22 21 21 21 19 21 22 22 24 27 28 26 22 15 14 14 18 18 22 23 24 22 23 24 25 25 24 24 24 24 24 24 24 24 23 23 24 24 23 23 22 19 19
45 45 44 45 44 33 30 27 31 25 21 22 23 20 18 16 18 16 21 22 24 21 15 13 13 15 16 18 20 24 25 26 24 21 21 22 23 23 23 23 22 22 22 22 21 21 20 19 20 21 21 19 16 14
41 41 43 42 38 36 33 30 26 27 27 24 25 24 20 21 18 17 17 22 16 14 13 16 16 18 20 21 24 24 23 24 22 22 20 18 20 21 20 21 21 21 19 18 17 16 16 15 17 17 16 14 14 13
39 43 37 39 33 34 33 33 30 31 28 27 26 25 18 15 11 14 20 15 13 14 17 16 17 18 18 17 19 21 21 21 21 21 21 20 17 17 17 17 17 16 16 16 17 15 15 16 15 15 13 12 12 10
40 37 31 32 28 28 26 34 29 30 25 25 26 22 20 17 19 24 13 16 17 19 19 18 18 19 18 19 19 19 20 19 17 17 17 17 17 17 17 17 17 15 14 15 17 15 14 15 14 12 11 10 8 5
36 25 21 21 27 20 23 22 28 26 24 22 21 17 20 18 22 15 11 14 16 18 18 17 18 16 17 16 15 16 17 18 17 17 18 16 15 15 16 16 16 16 16 15 13 12 10 8 10 9 7 4 3 1
18 16 17 12 18 20 15 12 14 16 10 13 13 14 20 21 12 10 9 12 14 13 14 15 15 15 13 13 14 14 16 16 15 14 15 16 14 14 13 14 14 15 16 11 9 7 6 5 5 4 3 2 2 -4
11 15 13 14 14 13 15 11 11 9 10 11 11 18 11 5 1 4 11 12 12 14 13 12 12 11 10 12 11 12 13 16 15 11 11 16 16 13 11 10 10 10 13 11 9 6 4 3 3 1 -2 -3 -4 -6
7 5 16 24 20 19 9 9 13 5 2 4 7 1 1 -5 -2 8 14 15 14 15 16 16 15 13 12 12 13 13 13 13 12 11 13 12 12 12 10 8 6 8 10 8 5 5 3 -0 -4 -5 -10 -16 -16 -12
12 13 3 5 6 12 -1 -0 0 0 2 12 7 -4 -6 -4 1 10 12 15 15 17 16 16 16 16 15 14 14 13 13 13 12 12 12 11 10 8 6 5 7 9 3 2 -0 -2 -3 -3 -5 -12 -13 -12 -13 -18
9 11 9 -2 1 3 7 -1 1 7 10 9 -3 -3 2 12 8 9 13 15 15 15 13 12 12 13 12 10 9 9 9 10 8 3 1 0 -1 2 -0 4 3 0 -5 -2 4 -2 -2 -6 -8 -9 -12 -9 -10 -11
7 10 1 -5 -3 -0 3 4 4 -0 9 6 11 12 10 9 13 18 17 15 11 10 11 12 11 8 5 3 2 4 6 5 4 3 -1 -3 -1 -1 -3 -5 -5 -6 -9 -11 -10 -8 2 -6 -4 -11 -13 -15 -17 -18
13 6 2 1 -0 3 5 -2 5 6 1 -1 -5 -4 -1 3 8 11 12 12 12 12 11 9 7 8 6 2 -1 -1 -0 2 1 3 3 -2 -7 -10 -11 -10 -11 -14 -14 -13 -14 -16 -15 -13 -12 -12 -15 -17 -18 -18
2 -4 -1 -3 2 4 8 7 3 -2 -5 -6 -4 -8 -1 -1 -2 4 9 9 11 10 8 6 5 3 2 0 0 -0 -0 -3 -3 -5 -6 -6 -11 -12 -11 -11 -14 -15 -13 -14 -16 -15 -15 -17 -18 -19 -19 -18 -19 -20
1 -1 -6 -2 -0 1 2 6 1 3 1 -1 -1 -2 -3 -1 -4 2 7 10 7 7 6 1 2 -2 -4 -5 -6 -11 -10 -12 -10 0 -5 -6 -8 -6 -13 -15 -16 -16 -13 -15 -14 -16 -14 -14 -18 -18 -20 -20 -20 -22

GFSWCAN_sfc_temp_081.txt.gz
Temp
47 47 48 48 48 48 48 48 49 49 49 49 49 49 49 50 49 47 44 47 43 38 41 45 47 42 42 42 34 40 38 36 33 28 29 29 24 32 33 38 35 33 31 30 33 30 28 49 50 44 48 55 55 59
47 47 47 47 47 47 48 48 48 48 48 49 49 49 49 49 50 49 42 47 47 40 40 48 50 53 52 51 44 43 39 39 37 32 30 30 26 25 33 29 43 35 38 34 37 35 47 49 50 52 54 52 55 56
47 47 47 47 47 47 47 47 48 48 48 48 49 49 49 49 50 49 44 45 45 40 39 40 40 50 56 56 54 41 39 46 44 43 35 34 31 33 26 31 39 42 46 39 39 46 48 51 52 52 55 56 58 58
47 47 47 47 47 47 47 47 47 48 48 48 48 48 49 49 50 49 43 45 44 39 33 38 49 47 56 55 53 51 50 48 45 44 39 32 30 39 31 37 37 43 44 42 41 47 49 51 51 54 56 56 57 59
46 46 46 46 47 47 47 48 48 48 48 48 49 49 49 49 49 48 46 46 45 40 34 35 43 50 54 53 50 49 49 45 41 38 34 34 36 37 35 36 34 44 43 38 38 49 47 50 54 54 53 55 56 56
46 46 46 47 47 47 48 47 47 47 47 48 49 49 49 49 49 44 38 45 47 46 39 33 42 44 49 50 48 47 45 44 42 39 34 39 44 38 26 32 44 47 49 47 44 50 50 52 52 51 52 52 51 51
46 47 47 47 47 47 47 46 47 47 47 48 49 49 49 49 46 39 36 42 48 47 38 33 31 41 48 47 46 44 44 43 42 39 35 37 39 40 29 29 43 48 48 47 48 47 46 49 49 49 49 46 45 46
46 46 47 47 47 47 46 47 47 47 47 48 48 49 48 48 47 42 43 49 48 43 39 32 33 36 44 39 38 42 41 40 41 39 37 35 38 35 29 37 43 46 46 47 45 47 49 49 47 45 45 43 38 35
46 46 46 47 47 47 46 46 47 48 48 48 48 47 45 43 40 42 48 49 47 42 33 29 31 30 40 38 39 38 39 33 37 32 34 36 32 31 36 39 42 42 43 42 42 44 46 44 42 41 40 37 33 31
46 46 46 46 47 47 46 46 46 46 47 47 45 38 32 41 48 47 41 37 38 39 36 31 33 32 38 34 33 34 33 31 30 34 36 28 31 40 42 42 41 40 38 39 39 39 39 38 37 36 34 33 31 30
46 46 46 47 47 47 48 48 48 48 47 41 36 35 43 48 41 38 31 32 33 30 33 30 33 32 35 31 33 32 32 31 28 29 30 29 30 34 39 38 38 38 38 37 37 39 38 36 31 29 29 30 30 29
47 46 46 47 47 47 47 47 48 44 40 41 41 44 43 37 33 31 30 31 27 29 30 30 27 29 33 36 32 32 32 32 28 31 27 28 31 33 33 32 33 35 35 35 35 32 31 31 30 28 27 26 25 25
46 46 46 46 46 47 47 47 47 47 46 44 40 34 34 29 22 21 22 28 28 32 33 31 30 33 34 34 31 32 30 29 33 31 30 27 30 31 32 31 30 32 31 30 29 30 29 28 28 27 25 25 26 24
46 46 46 46 46 46 47 47 47 45 42 34 29 19 18 14 21 23 25 28 29 32 30 32 32 32 32 30 31 29 30 32 29 26 22 26 28 29 30 30 29 27 28 27 27 27 26 26 25 25 25 25 24 23
46 46 46 45 46 46 46 46 46 39 33 26 27 18 21 24 25 26 27 28 28 31 32 33 33 34 31 29 31 30 28 19 22 18 20 26 28 28 27 27 26 26 25 25 25 24 24 25 24 23 24 24 23 21
46 45 42 45 46 46 46 44 40 38 31 27 23 20 22 21 20 22 22 24 28 28 31 34 32 31 27 25 23 20 19 16 20 23 26 26 25 25 25 25 25 25 25 24 24 24 24 23 22 22 22 22 22 21
45 38 44 45 46 45 44 37 33 29 27 24 19 22 20 20 18 19 21 22 27 28 28 29 23 21 28 21 20 22 16 21 24 24 26 25 24 24 25 25 25 25 24 24 23 24 23 24 24 22 20 20 21 20
38 39 44 46 44 41 36 33 28 26 21 22 19 19 19 19 18 19 20 23 25 28 27 22 26 18 15 16 15 20 22 23 24 24 24 25 25 25 26 24 25 25 24 24 24 24 23 22 21 20 20 20 19 19
40 41 44 45 42 34 30 29 29 20 20 21 21 21 20 17 20 21 21 23 26 26 24 20 14 11 12 17 17 21 22 22 21 22 22 23 24 23 23 23 23 22 22 23 23 22 22 22 21 21 20 19 16 16
44 44 44 44 42 31 28 27 30 24 17 20 21 19 17 16 18 17 20 21 22 20 15 12 11 13 14 17 19 19 24 24 22 19 18 20 22 22 21 21 21 21 21 21 20 20 19 19 19 19 18 17 15 13
41 40 43 41 35 37 32 26 25 25 24 21 22 23 18 19 17 16 17 21 15 13 11 14 14 17 19 20 22 23 22 23 20 21 18 16 19 19 19 20 20 19 18 17 16 15 16 15 16 16 13 12 12 11
37 42 35 37 31 33 31 31 29 30 26 24 24 24 15 10 9 14 20 14 12 13 15 15 16 17 17 17 18 20 20 20 20 19 19 19 16 16 16 17 17 15 16 15 15 14 14 15 15 13 11 10 10 9
38 36 31 32 27 26 25 33 27 28 24 21 23 19 16 14 16 22 10 14 15 18 18 18 17 17 17 18 18 18 19 18 16 16 16 16 16 16 16 16 16 15 14 15 16 14 12 13 11 10 9 7 5 3
34 22 19 19 24 17 23 21 27 25 22 21 21 18 17 17 21 14 9 12 14 16 15 15 17 16 16 15 13 14 16 17 16 15 17 16 14 14 15 15 15 15 15 14 13 11 11 9 9 7 4 2 1 -0
17 14 16 12 17 16 11 10 12 15 9 13 12 14 15 19 10 8 6 10 12 11 12 14 13 13 12 12 13 13 15 16 14 13 15 15 14 14 13 13 13 14 15 11 8 7 5 6 5 4 3 1 -0 -5
8 9 9 8 10 10 11 4 5 4 6 6 7 12 7 3 -1 0 8 7 7 11 8 9 10 10 9 11 10 10 12 15 15 11 10 14 15 13 11 10 9 9 12 10 8 6 5 4 3 2 -2 -2 -3 -7
4 2 14 20 17 15 4 4 9 2 -2 -1 1 -1 -3 -8 -7 5 10 10 11 11 14 14 13 12 11 11 12 12 12 12 11 10 11 11 11 11 11 8 7 8 11 9 7 5 3 -0 -2 -3 -8 -14 -14 -11
9 11 1 0 3 8 -6 -4 -4 -4 -1 10 3 -8 -10 -9 -1 7 8 12 11 15 14 14 14 13 12 12 13 12 11 11 11 11 11 10 9 8 7 6 7 7 1 -1 -1 0 -2 -5 -8 -13 -12 -13 -16 -23
3 4 5 -6 -3 2 4 -5 -3 4 9 6 -8 -7 2 9 8 7 12 13 14 14 11 10 9 10 9 9 8 8 7 7 4 2 -0 -3 -2 2 1 1 -0 -2 -2 1 5 -2 -4 -8 -10 -11 -14 -15 -18 -22
3 6 -1 -7 -3 1 -0 1 0 -3 7 5 9 11 8 7 12 14 13 11 9 6 6 8 5 3 1 1 0 3 4 -0 1 1 -2 -4 -2 -1 -6 -7 -7 -11 -14 -9 -12 -7 1 -9 -9 -15 -16 -18 -21 -20
9 2 -2 -1 1 3 0 -7 -0 3 -3 -4 -9 -5 -1 2 7 9 9 7 10 9 7 3 3 1 0 -3 -4 -5 -3 0 -1 0 1 -1 -5 -9 -12 -14 -17 -18 -17 -16 -16 -18 -18 -19 -19 -18 -17 -18 -21 -21
-3 -9 -3 -3 1 3 3 0 -8 -7 -11 -8 -6 -12 -6 -6 -7 -1 7 5 6 3 3 2 2 -0 -4 -5 -4 -5 -1 -6 -8 -7 -9 -11 -15 -16 -14 -15 -20 -18 -15 -17 -19 -19 -19 -18 -19 -19 -19 -19 -21 -22
-6 -7 -9 -5 -3 -2 0 4 1 -1 -1 -5 -2 -5 -5 -5 -7 -1 4 8 4 3 2 0 -2 -4 -6 -7 -11 -15 -15 -17 -14 -3 -8 -8 -10 -10 -18 -20 -21 -19 -14 -18 -19 -19 -18 -18 -21 -22 -23 -24 -23 -24

GFSWCAN_sfc_temp_084.txt.gz
Temp
47 47 47 47 47 48 48 48 48 49 49 49 49 49 49 49 49 46 43 46 41 36 39 44 45 41 42 41 33 39 36 36 34 30 29 29 26 30 31 35 33 31 30 30 32 30 27 47 45 40 45 47 50 50
46 47 47 48 47 47 47 48 48 48 48 48 49 49 49 49 49 48 41 46 47 40 39 46 49 52 51 50 42 40 39 38 36 33 29 29 25 25 31 26 38 31 36 33 35 35 46 47 47 51 52 48 51 53
47 47 47 47 47 47 47 47 47 47 48 48 48 49 49 49 50 48 44 45 43 38 37 39 40 47 53 54 54 38 39 46 42 42 37 34 28 31 25 28 34 39 43 37 37 44 45 49 52 53 53 53 54 56
46 47 47 47 47 47 47 47 47 47 48 48 48 49 49 49 49 49 43 45 43 38 32 37 48 44 52 53 52 51 48 47 44 42 38 35 29 38 30 36 34 39 41 40 39 46 49 51 51 52 51 52 54 56
47 47 46 46 46 47 47 47 47 47 47 48 48 48 49 49 49 47 45 45 45 40 33 35 41 47 50 50 49 49 49 46 42 38 35 34 37 37 33 34 31 41 41 36 37 48 44 47 50 50 50 50 51 51
46 46 46 47 47 47 47 47 47 47 47 47 48 48 49 49 49 44 38 44 46 45 38 31 40 41 46 48 48 44 46 45 42 39 37 38 41 38 31 28 40 43 45 46 44 48 47 49 50 50 47 44 46 45
46 46 47 47 47 47 47 47 47 47 48 48 48 48 49 48 46 38 36 41 48 46 37 32 33 39 45 45 45 43 44 43 43 40 37 36 36 39 32 31 40 45 47 47 47 45 44 48 47 43 44 43 42 41
46 47 47 47 47 46 46 46 47 47 47 48 48 49 49 48 47 41 44 48 48 41 39 30 32 35 42 37 37 40 40 41 40 39 38 33 35 34 32 36 43 47 48 45 45 46 45 46 44 41 42 39 36 34
46 46 47 46 46 46 47 47 47 47 48 48 49 49 46 41 36 42 48 49 46 41 33 30 31 30 41 38 39 38 40 32 38 34 36 35 30 31 36 38 40 42 42 43 41 42 43 42 40 39 38 35 32 29
46 46 47 46 46 46 46 47 47 48 48 48 45 36 31 40 47 47 41 38 38 38 36 28 33 32 38 35 34 34 35 32 30 33 35 30 29 38 38 39 38 38 38 38 36 39 38 37 35 33 31 31 30 28
47 47 47 46 46 46 46 46 47 47 46 40 36 35 43 48 41 38 31 32 32 30 32 33 34 33 36 33 32 32 32 31 25 28 30 30 30 34 36 36 37 37 37 35 35 36 38 37 31 29 29 29 29 28
47 47 47 46 46 47 48 47 48 43 40 42 41 43 41 38 33 31 29 31 31 28 32 29 32 31 33 37 33 33 29 30 24 30 30 28 30 32 33 32 32 34 35 34 32 30 31 31 30 28 26 25 24 24
46 46 47 46 46 47 47 47 47 47 46 42 37 32 32 27 25 25 20 26 27 31 32 31 30 32 32 34 32 31 30 28 33 30 26 26 29 31 31 32 30 31 31 30 29 29 29 27 27 26 24 24 24 23
46 46 46 46 46 46 47 47 47 44 40 32 26 17 19 12 20 22 22 27 28 31 28 31 31 30 31 29 31 27 27 32 28 26 20 23 27 28 28 29 28 26 27 27 26 26 26 25 24 25 24 24 23 21
46 46 45 45 46 46 46 45 44 38 31 24 24 15 18 23 23 24 25 27 27 30 32 31 32 32 30 29 30 30 27 21 18 15 20 23 26 26 25 26 25 25 24 24 24 24 23 23 23 22 22 23 22 20
47 45 43 44 46 45 45 42 38 36 30 25 20 18 20 20 18 20 20 22 26 26 31 33 31 29 25 24 22 19 17 13 17 22 24 25 24 24 24 24 24 24 23 23 23 23 22 21 20 20 21 21 20 20
45 38 44 45 45 45 43 36 33 29 26 23 17 20 19 18 16 17 20 21 25 27 26 28 23 20 26 20 18 20 11 19 22 23 24 24 23 23 24 24 24 23 23 22 22 22 21 22 21 20 17 18 18 18
37 39 44 46 43 40 35 32 28 26 20 21 18 17 18 18 16 18 20 23 24 26 25 20 24 18 13 15 14 19 21 22 22 22 22 23 24 24 25 23 23 23 23 22 22 22 21 20 19 18 18 18 17 17
39 40 44 44 40 34 30 28 29 18 18 20 20 20 19 18 20 20 20 22 24 25 23 19 13 11 11 16 16 19 21 22 20 20 20 22 22 22 22 22 22 22 22 21 21 20 20 20 19 19 18 17 14 14
44 44 43 43 41 30 27 25 30 23 17 19 20 18 17 17 19 19 19 20 21 19 14 11 11 13 14 16 18 19 23 23 21 18 17 18 20 20 20 20 20 20 20 20 19 19 18 17 17 17 16 15 13 11
40 39 41 38 34 32 30 25 24 22 22 20 22 22 15 17 16 16 15 21 15 13 11 13 14 16 18 18 20 22 21 22 19 20 17 16 18 19 19 19 19 18 17 16 15 14 14 13 14 14 12 11 11 11
34 41 32 34 30 32 30 30 28 28 23 23 22 22 13 6 7 12 19 13 12 13 15 14 14 16 16 15 17 18 19 19 19 18 18 18 16 15 15 17 16 14 14 14 14 13 13 13 13 12 10 9 10 9
37 35 29 29 24 23 23 29 21 26 18 19 21 16 12 11 13 20 7 13 12 15 16 16 17 16 15 16 17 17 18 17 15 15 15 15 15 16 15 15 16 14 13 13 14 13 11 11 10 8 8 7 6 4
33 21 17 18 21 13 22 20 27 24 21 19 18 14 15 14 18 12 7 9 13 15 14 14 16 14 15 14 13 13 15 16 15 14 15 15 13 13 14 14 14 14 14 14 13 11 10 8 7 6 4 2 2 0
16 11 13 9 15 12 8 6 9 15 11 14 13 10 9 16 6 4 4 8 10 9 10 12 13 12 11 10 11 13 15 15 13 12 14 15 14 13 12 12 12 13 15 11 8 7 6 6 5 4 3 2 1 -2
5 6 7 6 7 6 7 -1 -0 1 2 3 5 7 5 2 -1 0 7 8 7 10 8 8 9 9 9 10 9 9 10 15 14 10 10 13 14 13 11 10 9 9 12 11 9 6 5 4 3 2 -1 -2 -4 -8
1 -1 11 16 14 12 1 2 7 -0 -4 -5 -4 -7 -7 -11 -8 4 11 11 10 11 13 13 13 11 10 10 11 11 11 11 10 9 11 10 10 10 10 9 7 8 11 10 8 7 5 2 -1 -3 -7 -10 -13 -11
6 8 -1 -2 1 5 -9 -6 -6 -6 -3 8 1 -10 -13 -12 -2 5 10 12 11 14 13 13 12 12 11 11 11 10 9 10 11 11 11 9 8 6 6 5 6 7 3 3 2 1 0 -2 -4 -7 -11 -13 -18 -25
-0 2 4 -6 -2 1 1 -6 -3 5 8 1 -10 -8 -0 7 5 8 11 12 13 11 9 8 7 8 8 8 6 5 4 2 3 2 1 -1 -1 2 1 1 -1 -2 -2 3 6 0 -1 -5 -7 -9 -16 -16 -22 -28
-0 4 -3 -9 -4 -3 -4 -2 -3 -4 5 5 8 9 7 5 9 11 10 9 5 1 -1 -2 -3 -3 -5 -4 -3 1 2 -1 -3 -2 -4 -5 -4 -3 -7 -7 -6 -10 -7 -3 -3 -2 -0 -10 -9 -18 -18 -20 -22 -21
5 -0 -3 -2 -1 -2 -4 -10 -10 -4 -6 -4 -9 -7 -3 -1 4 7 7 4 4 0 -3 -4 -1 -4 -5 -7 -9 -9 -5 -2 -4 -1 0 -2 -5 -10 -12 -12 -16 -16 -14 -12 -15 -19 -20 -21 -22 -20 -18 -19 -22 -23
-7 -13 -4 -3 -1 0 -0 -9 -12 -11 -15 -9 -10 -15 -9 -8 -9 -1 4 2 2 1 0 -4 -5 -6 -10 -10 -12 -12 -8 -12 -13 -13 -12 -14 -15 -15 -15 -18 -22 -20 -17 -19 -21 -21 -20 -20 -21 -20 -20 -21 -23 -24
-10 -11 -11 -7 -5 -5 -3 0 -2 -5 -7 -8 -7 -11 -13 -11 -8 -2 2 3 1 -0 -3 -6 -9 -11 -10 -12 -13 -17 -17 -19 -14 -4 -8 -9 -12 -13 -21 -23 -23 -20 -15 -20 -22 -22 -20 -19 -22 -22 -24 -25 -25 -26

GFSWCAN_sfc_temp_087.txt.gz
Temp
46 46 47 47 47 47 47 48 48 48 49 48 47 47 48 48 49 46 43 46 40 35 38 42 45 41 42 40 34 37 36 35 33 30 31 31 30 35 35 39 35 34 31 30 31 28 27 49 48 41 44 48 49 51
46 46 46 46 47 47 47 48 48 48 48 48 49 49 48 47 48 48 41 46 46 37 38 45 47 51 50 48 41 39 39 37 39 34 34 36 31 32 35 30 42 34 40 37 38 38 46 51 50 51 50 49 50 50
46 46 46 46 47 47 47 47 47 48 48 48 49 49 49 49 48 47 43 44 42 38 37 38 38 47 52 53 53 37 40 43 40 44 37 36 31 36 30 34 39 42 46 40 41 47 48 49 52 53 56 52 55 55
46 46 46 47 47 47 47 47 47 47 47 48 48 48 48 49 49 48 42 44 42 37 32 37 48 45 51 51 51 51 48 48 46 42 36 35 33 41 35 40 39 45 45 43 42 47 49 52 52 54 53 54 54 56
45 46 46 46 47 47 46 46 47 47 47 48 48 48 48 49 49 47 44 45 45 40 33 35 42 46 50 49 48 49 47 45 41 38 35 35 38 38 39 38 37 45 44 41 40 49 48 50 53 52 51 50 50 52
46 46 46 46 46 46 46 47 46 47 47 48 48 48 48 49 49 43 37 43 46 44 38 32 42 42 45 47 46 45 46 44 42 38 36 39 44 40 34 33 42 48 50 49 48 52 51 51 51 53 52 48 46 46
46 46 47 47 47 47 47 47 47 47 47 47 47 48 48 48 45 38 37 42 47 44 35 32 34 41 44 44 43 43 46 43 41 37 36 39 41 41 34 32 43 47 49 50 51 50 47 50 49 50 48 43 42 42
46 46 46 46 46 46 47 47 47 47 47 48 48 48 48 48 46 40 45 47 47 41 39 31 32 37 43 37 36 43 39 41 39 38 38 36 39 38 33 40 45 48 50 49 50 50 51 50 48 46 44 42 38 35
46 46 46 46 46 46 46 46 47 48 48 48 48 48 46 40 35 41 48 48 47 41 33 32 29 30 41 38 39 39 40 32 39 34 35 37 35 31 38 41 43 42 43 44 44 45 46 45 45 43 41 39 35 33
46 45 45 46 46 46 46 46 47 48 48 49 44 35 32 37 47 47 41 38 37 40 37 32 35 32 38 36 35 34 35 33 31 34 38 34 34 39 38 37 37 37 38 39 39 42 42 42 39 36 35 35 34 32
46 46 45 47 46 46 46 47 47 47 47 40 33 34 43 48 42 36 31 32 33 30 33 33 35 32 37 33 32 35 32 33 29 32 33 31 31 35 36 36 37 37 38 38 37 36 37 37 37 33 31 31 32 31
47 46 46 46 46 47 47 47 47 44 41 42 42 43 41 36 33 31 28 31 30 29 33 31 33 35 35 38 34 32 31 31 26 34 30 28 29 31 33 33 34 34 34 35 34 32 33 34 34 32 30 28 26 25
46 46 46 46 46 47 47 47 47 47 46 43 36 31 31 27 25 23 22 27 28 32 32 33 32 34 34 37 33 33 29 28 35 30 29 26 28 31 30 30 31 32 31 31 30 30 30 28 29 27 25 25 25 23
46 46 45 46 46 46 46 45 46 43 38 31 28 18 19 13 19 20 23 27 28 31 32 33 31 32 32 31 32 29 31 32 28 27 22 25 26 28 29 29 28 26 27 26 26 26 26 25 24 24 24 23 21 20
46 45 46 45 46 45 45 44 44 37 31 24 25 14 17 22 21 23 24 27 27 29 33 32 33 34 31 30 30 31 28 23 21 18 23 25 26 26 25 26 25 25 25 24 24 23 22 22 21 21 22 21 21 19
47 45 43 45 45 46 44 41 38 35 29 24 19 17 18 19 17 19 19 21 25 26 30 34 32 26 25 26 25 19 20 16 19 22 24 25 24 24 24 24 23 24 23 23 23 22 21 21 19 19 19 18 18 17
44 38 44 45 45 43 43 35 33 29 25 21 16 19 17 16 15 17 19 20 25 27 26 27 20 20 27 21 17 20 15 18 22 23 24 24 23 24 24 24 24 23 22 22 21 21 20 20 19 18 15 16 16 16
37 39 44 45 43 40 34 33 29 26 18 20 16 17 19 19 17 18 20 23 24 26 25 20 25 17 13 14 13 19 21 22 22 21 21 22 23 24 24 23 23 23 22 21 21 21 20 19 17 16 16 17 16 16
39 41 44 44 40 34 30 28 29 18 18 20 20 20 19 19 20 20 21 22 24 25 22 18 13 10 11 16 15 17 20 21 19 20 20 21 22 22 21 22 21 21 21 21 20 19 19 19 19 18 17 16 13 13
44 43 43 43 40 30 26 25 30 22 18 19 21 18 18 17 19 19 18 20 20 18 13 11 10 12 13 16 18 19 22 23 22 19 17 19 21 20 20 20 20 20 19 19 19 18 17 16 17 17 16 15 12 11
40 39 41 37 32 32 30 26 24 22 22 20 22 21 17 19 16 15 15 19 15 12 10 13 13 16 17 18 19 21 20 21 20 21 18 16 19 19 19 19 19 19 17 16 15 14 14 13 14 14 13 12 12 11
34 40 30 33 30 32 31 29 27 25 23 22 21 21 13 11 11 13 18 13 11 12 14 15 14 15 15 15 16 18 19 19 19 18 18 18 16 16 16 17 16 14 15 15 14 13 12 13 13 13 11 10 11 10
36 34 28 29 22 22 23 29 21 25 16 20 20 15 13 11 15 20 9 12 12 15 15 16 17 16 15 16 17 17 17 17 16 16 16 15 16 16 16 16 17 15 13 13 14 12 11 11 11 10 10 9 8 7
32 19 15 15 19 13 19 15 24 21 18 19 17 13 14 14 18 12 7 9 12 14 13 13 15 15 15 14 13 13 15 17 16 15 16 15 13 13 15 14 14 14 14 14 13 11 10 9 9 9 8 7 6 5
16 8 11 6 12 9 4 5 9 14 10 12 9 6 8 15 7 5 5 8 10 10 10 13 13 12 11 11 12 12 14 15 13 12 14 16 15 14 13 13 12 14 16 12 10 9 8 8 7 7 7 6 4 3
2 3 5 4 3 4 6 -2 -1 -1 1 1 3 5 6 4 1 2 7 8 9 10 9 10 11 10 9 10 9 9 11 15 14 10 10 12 14 14 12 11 10 10 13 13 11 8 8 7 7 5 4 3 1 1
-2 -4 9 14 12 9 -0 1 6 0 -4 -5 -3 -5 -4 -9 -6 5 12 12 11 12 13 13 13 11 10 10 11 11 12 12 10 10 11 10 10 10 11 10 8 10 13 13 12 11 8 7 6 5 2 2 3 3
4 7 -2 -3 -0 4 -9 -6 -6 -5 -1 7 1 -9 -11 -9 -0 8 11 13 13 14 13 12 12 12 10 10 10 11 11 12 11 12 12 10 9 7 7 7 8 9 7 8 8 8 8 6 4 3 3 2 -2 -6
-1 1 3 -8 -4 -1 -0 -6 -1 5 7 1 -7 -4 1 7 7 10 12 14 14 12 10 9 8 10 9 8 6 5 4 6 8 5 3 3 5 4 4 5 5 6 8 8 8 5 4 3 2 2 0 0 -5 -9
-1 4 -3 -8 -6 -4 -3 -1 0 -1 4 6 9 9 7 6 9 11 12 12 10 7 4 4 3 5 3 4 3 3 2 1 1 4 3 2 3 2 1 2 1 1 4 5 3 3 3 -1 -1 -4 -3 -4 -2 -2
4 0 -2 -2 -2 2 -2 -8 -9 -6 -5 -3 -5 -4 -1 1 7 7 7 6 6 4 5 4 3 -1 2 2 2 2 1 1 -1 1 2 1 0 -0 -2 -3 -4 -2 0 0 -1 -1 -3 -3 -2 -2 -2 -3 -7 -6
-7 -12 -4 -4 -2 0 -1 -9 -11 -8 -10 -3 -6 -11 -7 -4 -6 2 5 3 5 3 1 1 3 1 -3 -4 -5 -3 -5 -5 -4 -5 -3 -3 -4 -6 -6 -6 -8 -4 -3 -4 -4 -4 -5 -3 -4 -4 -3 -5 -7 -8
-11 -12 -10 -6 -5 -5 -3 -3 -4 -6 -8 -8 -8 -13 -12 -7 -7 1 4 3 3 2 1 -0 -2 -4 -5 -5 -5 -8 -11 -8 -7 -2 -7 -8 -10 -8 -8 -8 -7 -5 -4 -5 -6 -5 -5 -5 -6 -6 -7 -8 -9 -10

GFSWCAN_sfc_temp_090.txt.gz
Temp
47 46 46 46 47 47 47 47 47 47 48 48 48 48 48 48 48 46 42 47 44 37 43 47 46 41 43 45 39 43 39 38 35 31 35 36 36 41 40 44 40 36 33 32 34 29 28 55 53 42 51 57 58 59
46 46 46 46 46 47 47 47 48 47 48 48 49 48 48 48 48 47 40 45 46 40 43 51 51 54 51 51 46 45 41 38 42 35 42 43 37 41 41 35 51 38 46 42 43 43 54 55 54 58 60 57 57 58
46 46 46 46 46 47 47 47 47 48 48 48 48 48 48 48 48 47 42 44 42 37 37 39 39 51 55 54 55 40 42 47 41 45 42 44 37 46 36 39 45 51 55 46 46 53 56 58 60 60 60 59 60 59
46 46 46 46 46 46 46 47 47 47 48 48 48 48 48 48 48 47 42 45 42 38 32 37 50 47 55 53 52 49 49 50 48 42 36 36 36 48 43 46 46 51 53 49 49 54 56 58 60 61 60 59 60 58
45 46 45 46 46 46 47 47 47 47 47 48 48 48 49 49 49 46 44 45 46 41 35 40 50 51 52 52 50 49 45 43 40 37 35 35 43 42 45 45 44 53 50 46 45 55 55 56 61 60 57 57 55 52
46 46 46 47 47 47 46 46 47 47 47 47 48 48 48 49 49 43 36 43 46 46 38 33 42 45 51 50 48 48 46 42 41 38 36 42 48 44 36 38 51 55 58 58 54 60 59 60 60 61 56 55 50 50
46 47 47 47 47 47 46 46 47 47 47 47 48 48 48 48 45 38 38 44 47 45 37 34 38 42 49 47 46 44 46 42 40 38 37 39 45 44 36 36 50 54 57 59 60 59 54 58 57 58 54 50 48 45
46 46 46 46 46 47 47 47 47 47 47 47 48 48 48 48 46 40 48 47 48 40 38 33 35 37 46 38 37 44 38 39 39 37 39 39 45 40 35 47 51 54 57 57 57 57 57 58 57 57 53 48 46 44
46 46 46 46 46 47 46 47 48 47 47 47 48 48 45 42 35 41 47 48 50 44 35 34 33 30 45 39 41 40 40 33 39 35 37 43 41 34 43 48 51 50 46 47 49 52 55 54 54 51 50 46 43 40
45 46 46 46 46 46 46 46 47 47 48 48 43 34 32 37 47 46 41 37 38 40 41 36 42 33 42 39 36 36 37 35 32 36 44 36 39 48 45 44 44 43 44 46 42 44 46 45 49 47 45 46 43 42
46 46 45 46 46 46 46 47 48 48 46 39 34 35 42 48 44 38 32 34 35 32 37 40 40 35 39 36 35 38 34 35 32 37 34 34 34 38 39 40 42 43 43 44 44 43 41 40 41 44 42 40 40 38
47 46 46 46 46 47 47 47 47 45 43 42 42 44 42 38 35 33 32 33 33 33 36 34 37 39 37 42 37 35 34 34 30 39 33 32 29 33 35 35 37 39 39 39 38 37 37 36 39 40 38 35 33 30
46 46 46 46 46 47 47 47 48 47 49 45 39 34 35 29 30 30 26 30 31 34 35 35 34 38 34 36 36 33 31 32 40 31 31 29 32 33 33 34 33 36 36 35 34 33 32 31 32 31 27 26 26 25
45 46 46 46 45 45 44 45 46 45 44 37 31 23 26 24 27 28 30 31 31 35 37 37 35 39 37 35 35 31 35 36 30 29 26 28 28 30 31 32 31 29 29 29 28 29 27 26 25 25 24 24 22 21
46 46 46 46 45 45 45 44 44 43 36 29 31 21 22 26 27 27 28 30 30 31 35 35 38 41 34 32 34 33 30 27 27 25 26 27 28 29 28 28 28 27 27 26 26 24 24 23 22 21 21 22 20 19
46 46 45 45 45 45 44 45 44 41 34 28 24 22 24 26 23 23 22 24 27 28 34 36 34 31 29 31 27 24 25 23 24 26 27 29 27 27 27 27 26 26 26 25 25 24 23 21 20 19 20 19 19 19
46 44 44 44 44 44 44 42 39 32 28 24 20 24 23 22 21 23 24 24 28 29 30 32 27 24 32 25 21 25 22 24 25 27 28 26 26 26 26 26 25 25 24 23 23 22 21 21 20 19 16 17 17 17
44 46 45 45 46 43 40 39 33 29 21 23 20 21 22 23 22 23 25 27 29 30 31 24 30 21 19 17 19 22 25 27 27 26 25 25 26 26 27 25 25 25 23 23 22 22 21 20 19 19 18 18 17 16
44 46 45 45 46 41 35 33 35 22 22 24 24 24 24 23 24 24 24 25 27 30 26 21 17 15 15 19 18 21 22 24 23 23 23 23 24 24 24 24 24 23 23 22 23 22 22 21 21 20 19 17 15 14
44 43 43 43 44 38 30 30 37 28 22 23 25 22 22 21 22 22 22 24 25 21 16 15 14 16 17 18 20 21 25 27 26 24 22 23 24 23 22 22 21 21 21 20 20 19 19 18 19 19 17 16 15 13
45 44 43 45 42 39 34 31 28 29 27 25 26 26 22 24 20 18 18 22 18 15 14 16 17 18 19 20 22 24 24 25 24 26 23 22 23 23 22 23 23 23 21 19 18 17 17 16 17 17 16 15 15 15
42 42 42 42 37 36 34 35 31 32 30 27 26 26 21 19 18 18 23 17 14 14 16 17 17 18 18 18 19 21 21 22 23 23 22 23 22 22 22 21 21 19 19 18 18 16 16 17 17 16 15 14 15 14
40 40 36 36 30 30 26 36 29 30 24 24 27 21 19 19 21 25 15 16 15 18 18 19 19 19 18 19 20 20 20 21 21 21 21 20 21 21 20 20 20 18 16 16 18 17 15 16 16 15 15 15 14 12
34 24 22 23 28 21 28 24 30 27 26 24 21 17 17 20 23 18 12 14 16 19 18 17 20 20 20 19 18 18 19 22 21 20 20 19 17 17 19 18 18 18 18 17 17 16 15 14 15 15 14 13 12 12
23 13 20 16 22 20 17 17 17 21 16 18 15 15 15 22 14 12 10 13 15 15 16 18 18 18 17 17 18 17 18 20 19 16 18 20 18 18 16 16 16 17 19 16 15 15 14 14 14 13 13 12 11 9
9 12 14 14 15 16 15 12 12 12 14 12 11 15 18 14 9 8 12 14 14 15 15 16 16 17 15 16 15 15 15 19 19 15 15 16 18 18 16 15 14 13 17 17 16 14 13 13 13 12 11 10 9 9
10 10 15 19 19 16 13 14 15 13 9 8 12 10 12 5 5 11 17 17 17 17 18 18 18 17 16 16 16 16 17 16 15 14 15 15 15 15 16 15 13 14 17 17 17 15 13 12 11 11 10 10 10 10
14 15 8 8 10 13 6 8 8 7 9 13 13 4 4 5 8 15 17 18 18 19 18 17 17 17 16 16 16 17 17 17 16 17 17 16 15 14 14 14 14 13 15 16 17 16 15 14 12 12 11 9 7 10
11 13 12 1 7 8 7 7 8 11 12 13 9 8 8 13 15 17 18 19 20 19 17 16 15 16 15 15 13 13 13 14 13 11 11 11 12 10 12 13 14 15 15 14 13 13 13 13 13 12 11 10 8 7
10 15 9 6 4 6 8 11 10 11 14 14 16 14 13 13 14 18 19 18 16 13 13 13 14 15 12 13 11 10 10 10 10 13 12 10 9 10 11 11 12 12 14 13 12 10 9 8 8 7 7 7 9 8
15 16 11 10 8 11 12 11 13 14 14 13 15 13 10 12 14 14 14 14 14 15 15 13 11 10 12 11 12 11 8 9 7 8 10 10 10 10 9 8 10 12 12 11 10 10 9 9 10 9 8 6 4 6
11 10 9 7 9 12 13 14 14 13 13 14 11 12 10 12 9 12 11 12 15 13 7 12 11 8 7 8 8 7 6 7 7 7 8 8 8 7 8 8 8 10 10 9 9 9 6 6 8 8 8 3 3 3
10 12 12 11 10 10 11 13 11 10 11 11 9 7 8 10 6 10 13 11 13 12 10 10 9 8 6 6 7 5 6 5 1 2 0 -1 -2 2 7 8 8 8 7 8 7 7 4 1 4 3 2 1 1 0

GFSWCAN_sfc_temp_093.txt.gz
Temp
46 46 46 46 47 47 47 47 47 47 48 48 48 48 48 48 49 47 46 51 44 39 46 50 51 47 49 48 40 45 42 43 37 32 37 39 38 43 44 47 42 38 34 32 36 31 30 59 56 47 53 59 60 60
46 46 46 46 46 47 47 47 47 47 47 48 48 47 47 48 48 48 40 49 52 41 46 54 55 57 54 54 46 43 42 39 46 40 44 44 39 43 44 37 51 36 46 42 44 43 56 60 58 62 63 60 60 60
46 46 46 46 46 46 47 47 47 47 47 48 47 48 48 48 48 47 42 44 44 38 40 45 45 55 60 58 56 37 47 47 44 47 42 39 38 48 38 43 47 54 58 49 49 55 58 61 64 65 65 63 63 62
46 46 46 46 46 46 46 46 47 47 47 47 48 49 48 48 48 47 42 44 42 39 33 42 56 51 59 59 57 55 52 52 47 45 38 37 38 51 44 48 46 53 55 50 51 56 59 62 63 64 64 64 63 61
45 45 46 46 46 46 46 46 47 47 47 48 48 49 49 48 48 46 45 44 46 43 37 41 52 55 57 55 54 55 51 46 39 36 35 36 46 45 47 46 45 55 52 48 47 57 56 59 63 64 62 62 61 56
45 45 46 46 46 46 46 46 46 47 47 47 48 48 48 48 47 42 34 42 46 46 38 33 45 45 52 54 52 50 47 44 40 37 36 43 47 44 39 40 53 57 60 60 55 62 62 62 63 65 62 61 56 54
46 46 47 47 47 47 47 47 46 47 47 47 48 48 48 48 45 38 40 45 47 46 36 36 39 46 49 48 48 47 47 41 40 37 38 40 40 43 40 38 52 57 59 61 63 62 58 61 59 63 63 59 53 50
46 46 46 46 46 46 47 47 46 47 47 47 48 48 48 48 46 41 47 47 48 40 37 33 37 36 44 37 38 45 39 39 38 36 38 40 45 44 36 48 53 56 59 59 60 58 57 60 61 62 60 56 53 49
46 46 46 46 46 47 47 47 47 47 47 47 47 48 45 41 37 45 47 48 49 43 35 34 35 32 45 39 40 39 40 33 39 35 38 42 41 36 46 49 52 49 48 50 53 55 56 56 55 57 56 55 51 49
46 46 45 45 46 47 46 47 47 47 47 47 44 33 32 38 47 46 42 38 38 40 43 37 46 35 43 39 36 37 38 36 32 36 46 37 40 50 51 49 49 47 48 49 46 47 48 47 48 49 50 53 51 49
46 46 46 46 46 46 46 47 47 47 44 40 34 35 42 49 44 37 33 33 35 33 40 45 44 39 45 36 35 39 35 39 33 38 36 37 40 43 43 43 44 44 45 46 46 46 47 46 43 43 44 47 46 44
46 46 46 46 47 46 47 47 46 45 42 43 42 44 43 39 35 33 33 36 36 35 40 38 42 44 42 47 41 39 36 35 31 42 34 34 31 36 39 38 39 41 41 42 42 40 39 38 38 38 37 33 32 30
45 45 45 46 46 46 46 47 47 47 49 48 42 36 36 33 30 30 27 32 33 38 38 40 36 38 39 40 39 36 30 33 40 33 33 30 33 35 35 36 35 38 37 35 35 36 34 31 31 31 28 28 28 26
44 45 45 45 45 46 46 47 47 46 47 42 35 26 30 28 31 30 31 34 33 37 39 41 36 38 37 35 35 32 35 38 31 30 27 28 29 31 33 32 31 30 30 29 29 29 28 28 26 26 25 25 24 23
45 45 44 45 45 45 45 44 45 47 40 33 35 25 26 29 30 30 31 33 31 33 36 38 42 42 36 33 36 34 31 29 29 26 27 28 29 30 29 29 28 28 28 28 28 26 25 24 24 22 22 22 20 19
46 47 44 45 45 46 46 48 48 46 38 31 28 26 30 30 28 28 27 28 32 31 35 36 36 33 30 33 30 27 28 26 25 26 28 30 28 28 28 28 27 27 28 28 27 26 24 23 22 22 21 21 20 20
47 48 45 45 45 45 46 46 42 35 31 28 24 28 28 27 26 26 27 28 32 31 32 34 30 27 34 29 25 27 23 25 27 28 29 27 26 26 27 28 27 27 26 26 25 24 23 23 23 21 19 19 19 18
50 47 45 46 49 47 44 44 37 31 24 27 24 24 26 26 27 27 29 30 32 34 35 27 35 27 24 22 23 24 27 29 29 28 27 27 27 27 28 27 26 26 25 24 24 23 23 22 21 19 19 19 18 17
48 49 45 45 48 46 38 37 40 26 25 27 28 28 28 27 28 28 29 30 30 33 31 29 23 21 20 22 22 23 25 26 24 25 26 26 26 25 25 26 26 25 24 25 24 24 23 22 22 21 21 20 18 17
43 44 44 45 48 41 33 33 42 31 26 26 29 26 27 25 27 27 26 27 27 25 20 18 17 18 18 20 22 23 25 27 29 28 27 26 27 26 25 25 24 24 23 22 22 21 21 20 21 21 20 19 17 15
47 46 45 50 46 43 36 35 31 31 30 27 30 29 26 28 24 23 23 26 20 19 17 19 20 21 22 22 24 25 24 27 26 27 26 24 26 27 27 27 26 26 23 21 20 19 19 18 18 19 18 17 17 16
48 45 47 47 40 39 35 37 32 35 31 28 29 29 25 22 21 22 26 20 17 18 20 20 20 21 22 21 22 23 24 26 26 26 26 26 25 25 24 25 25 22 22 22 21 19 19 20 20 19 17 17 18 17
43 46 41 40 32 32 28 39 31 32 26 26 30 24 23 23 25 30 19 20 19 22 22 22 22 22 22 23 23 23 24 25 24 24 24 24 25 25 24 24 24 21 20 20 22 20 19 19 20 19 19 18 17 16
38 29 27 28 31 25 31 28 33 30 29 26 24 20 20 24 28 22 15 17 20 23 22 21 24 24 24 23 21 20 23 26 24 24 25 24 21 21 22 21 21 21 21 20 20 19 19 18 19 19 19 18 17 16
26 17 26 22 28 26 24 23 23 25 20 23 19 19 20 28 20 17 15 17 19 19 20 23 22 22 20 20 21 20 21 23 22 20 22 24 22 21 19 19 19 20 22 19 18 17 17 18 18 17 17 16 15 14
15 17 20 21 21 22 23 19 19 19 20 17 17 22 24 21 15 12 16 17 18 19 18 19 20 21 19 20 19 19 19 23 23 19 18 20 20 21 20 19 17 16 20 20 19 18 17 17 16 15 14 14 13 13
15 16 20 26 25 24 21 22 23 20 16 15 19 17 19 12 11 15 20 20 20 20 21 21 22 21 19 20 20 20 20 20 19 18 19 20 19 19 19 17 15 17 20 20 19 19 17 16 15 15 13 14 14 14
20 20 12 16 17 21 14 16 15 14 16 19 20 11 10 12 13 19 20 21 22 22 22 22 22 21 20 20 20 20 20 21 20 21 21 20 19 19 19 19 18 17 19 20 20 20 19 18 16 15 15 14 13 15
18 21 17 8 15 15 14 15 15 16 17 21 17 14 13 17 20 20 21 22 25 24 20 20 19 22 21 20 19 18 18 18 18 15 14 15 15 14 18 18 19 19 19 17 17 18 18 18 17 17 15 14 13 14
16 23 15 13 11 11 13 18 15 18 21 20 20 17 16 16 18 23 22 22 20 18 19 19 19 19 17 18 15 15 15 15 15 16 15 13 12 15 16 16 16 17 18 17 15 14 13 13 13 12 12 12 13 12
24 23 18 17 13 15 17 17 20 20 21 20 21 18 15 15 17 19 19 19 20 20 20 18 16 16 16 14 15 15 12 13 12 13 15 15 14 14 13 13 15 17 17 16 16 15 14 15 15 13 12 11 9 10
20 18 16 12 13 17 20 21 20 18 19 18 16 18 17 18 14 17 17 18 20 17 12 17 15 11 13 14 13 12 11 12 12 11 12 13 13 12 13 14 14 15 14 14 14 13 11 11 14 13 13 9 9 8
19 19 19 17 14 16 17 20 19 16 19 17 15 16 15 16 11 15 18 18 17 16 15 14 14 13 11 11 12 12 11 9 6 7 6 5 4 7 12 13 13 13 11 13 13 12 8 6 10 8 8 6 6 6

GFSWCAN_sfc_temp_096.txt.gz
Temp
47 47 47 47 46 46 47 47 47 48 48 48 48 48 48 48 49 46 45 49 42 38 43 48 49 45 47 46 39 46 41 44 37 32 34 36 35 40 40 40 41 37 32 31 34 31 29 58 57 46 52 58 59 60
46 46 47 46 46 46 47 47 47 47 47 47 47 48 48 48 48 48 40 49 49 38 44 52 53 55 54 53 46 44 39 33 45 40 41 42 37 40 42 36 49 34 43 40 42 40 54 58 56 60 62 60 60 59
46 46 46 45 45 46 47 47 47 47 47 47 47 48 48 48 48 47 43 46 43 36 39 43 45 54 58 57 58 37 43 41 42 42 39 38 33 40 35 40 45 47 53 41 40 49 54 56 59 60 64 63 63 62
46 45 45 46 46 46 46 46 46 47 47 47 47 48 48 48 48 47 42 44 43 38 32 40 56 50 58 58 57 55 49 45 42 43 35 36 34 45 38 43 42 49 47 46 44 55 57 60 60 60 61 63 63 61
45 45 45 46 46 46 46 46 46 47 47 47 47 48 47 48 48 47 45 44 47 42 36 40 51 56 58 56 53 55 52 48 44 37 34 34 43 43 46 45 42 52 49 44 42 54 53 55 60 62 61 61 58 56
45 45 45 45 45 46 46 46 46 46 47 47 47 48 49 48 48 41 34 43 46 49 37 33 49 48 53 55 52 50 50 47 44 37 35 41 49 42 36 37 51 53 58 57 52 60 60 61 63 63 60 60 56 54
45 45 45 45 46 46 46 46 46 46 46 47 47 48 49 48 43 37 38 44 46 46 34 34 38 45 49 52 51 49 50 44 42 38 35 39 43 42 37 36 47 48 50 56 61 59 56 57 55 60 61 58 55 52
45 45 46 46 46 47 47 47 47 47 46 47 47 48 48 47 45 40 45 47 47 39 37 32 36 38 45 37 38 47 39 40 38 37 39 40 43 40 34 47 52 54 56 56 54 56 56 58 59 57 59 59 54 53
46 46 46 46 46 47 47 47 47 47 47 47 48 48 45 41 36 42 47 47 47 40 34 33 33 32 41 37 38 40 39 33 38 33 36 39 37 35 44 46 47 47 47 47 51 53 54 51 52 52 52 51 51 51
46 45 45 45 46 46 46 47 47 47 47 48 44 34 32 38 47 46 41 37 37 38 39 33 43 34 39 37 35 35 36 34 31 35 43 36 37 47 43 43 43 45 46 47 43 42 43 44 45 45 46 47 47 49
46 46 45 46 46 46 46 46 47 47 46 40 35 35 43 48 42 35 32 33 34 32 39 42 42 36 42 35 33 37 34 36 31 36 36 35 34 34 40 40 41 43 43 43 43 43 43 40 38 38 39 39 38 38
45 46 46 46 46 46 47 47 46 44 43 45 43 45 44 38 34 32 31 34 35 35 43 40 41 43 42 45 36 37 34 34 30 41 35 32 29 33 36 35 36 38 38 38 39 37 36 35 33 33 31 31 29 28
44 46 46 46 46 47 46 46 48 48 48 47 43 37 36 34 30 29 27 32 33 40 41 41 36 38 42 44 40 37 31 32 38 33 30 27 29 32 32 33 32 35 33 33 32 33 32 30 29 29 28 27 27 25
43 44 46 46 45 46 47 47 47 47 46 39 34 28 31 30 31 30 30 33 34 39 40 41 38 39 37 34 35 30 36 38 31 29 24 25 28 30 31 31 29 28 28 28 27 28 27 26 25 25 25 25 24 23
45 43 44 45 45 45 45 45 46 47 42 34 36 26 27 30 31 31 33 33 32 35 36 39 41 40 35 32 33 33 30 29 27 23 25 27 28 28 27 27 26 26 27 27 26 25 23 23 22 21 22 22 21 19
45 45 42 43 45 45 46 47 47 46 39 32 29 28 31 30 28 29 30 30 32 32 34 36 35 33 31 34 31 27 28 22 23 26 27 28 26 27 27 27 27 27 26 26 25 25 23 22 21 20 21 20 20 20
47 43 45 45 45 46 47 46 42 36 33 29 25 29 30 29 26 28 30 29 32 31 32 33 30 28 34 29 25 27 22 24 27 27 28 27 25 26 27 27 26 26 25 24 24 23 22 22 22 20 17 18 18 18
46 45 45 47 49 48 47 45 38 33 25 28 25 25 27 27 27 28 30 31 32 33 35 27 32 27 23 23 21 24 26 28 29 27 27 27 27 26 27 26 26 26 25 24 24 23 22 21 19 18 18 18 17 16
46 47 46 46 50 46 38 37 40 26 26 28 29 30 29 28 29 29 29 31 31 34 32 29 22 20 19 21 21 23 25 26 27 28 27 26 26 25 25 25 25 24 23 23 23 23 22 22 21 21 20 19 16 15
45 45 46 47 50 42 34 35 42 31 26 27 30 27 27 26 29 28 27 28 29 26 20 18 17 18 19 20 22 23 24 26 27 27 25 26 27 26 25 25 24 24 23 22 22 22 21 20 21 20 20 18 16 14
47 46 48 51 46 42 38 34 31 32 31 28 30 30 26 28 25 24 23 27 21 19 17 20 20 21 23 23 24 25 25 26 25 25 24 24 26 27 26 26 26 25 23 21 19 19 18 17 18 18 17 16 16 16
49 45 47 48 40 39 35 38 33 35 31 29 29 30 25 22 22 21 25 19 17 18 20 21 20 23 22 21 22 24 24 26 26 27 27 27 24 24 24 24 24 22 22 21 20 19 19 19 19 17 16 15 16 16
44 46 42 41 33 33 29 37 31 32 27 27 30 25 23 22 24 29 18 19 19 22 22 23 23 24 23 23 23 23 25 25 24 24 24 24 24 24 23 23 23 21 19 20 21 20 19 19 19 18 18 17 16 15
40 31 29 30 32 26 33 29 34 31 30 27 25 20 22 24 29 22 15 17 19 23 23 23 24 23 23 22 20 19 21 25 24 23 24 23 20 20 21 21 21 21 21 21 20 19 19 18 18 19 18 17 17 15
27 19 27 24 31 28 25 25 25 26 22 24 21 20 22 28 20 17 15 17 19 19 21 23 23 22 20 20 20 20 22 23 21 19 20 22 22 21 19 19 19 21 23 20 18 18 17 18 18 18 17 17 15 14
16 20 23 24 24 25 25 21 22 22 22 20 20 24 26 22 17 13 16 18 18 19 19 20 21 20 19 19 18 17 18 22 23 18 18 20 19 21 20 18 16 17 21 21 19 18 17 16 16 15 14 15 14 14
17 18 23 30 29 28 24 25 26 22 19 18 21 20 21 14 12 15 20 21 20 21 22 23 22 20 19 19 20 21 21 21 19 18 20 20 19 19 18 16 15 18 21 20 20 18 17 16 15 15 14 14 15 15
22 22 15 20 21 24 17 19 18 17 18 22 22 14 13 14 13 19 20 22 23 23 23 23 22 21 20 20 20 20 21 22 20 21 20 19 20 19 19 19 18 19 18 19 20 20 19 18 16 15 15 14 14 15
20 23 19 12 18 17 17 18 17 18 19 23 19 15 14 19 21 20 22 23 25 23 21 20 21 23 22 21 19 19 19 18 17 16 15 14 13 14 18 18 19 19 18 17 18 18 18 18 18 16 15 14 14 15
20 27 18 16 13 11 15 20 18 21 22 21 20 18 17 17 20 24 23 22 20 18 19 19 19 19 17 18 15 14 15 15 14 13 12 11 11 15 15 16 16 17 18 16 15 14 15 14 15 13 12 12 13 12
27 25 20 18 14 16 18 22 23 23 23 21 22 17 14 15 18 20 20 21 21 21 20 17 15 16 14 13 13 14 10 12 12 13 14 15 14 13 13 14 15 16 17 16 16 15 14 15 15 13 13 11 7 9
24 20 17 13 13 19 21 23 22 20 20 19 17 18 18 18 15 16 18 18 20 17 14 17 14 12 14 14 13 12 10 11 10 9 8 11 13 13 14 14 15 15 14 14 14 13 13 13 13 13 12 11 10 9
22 21 20 17 15 18 19 22 20 18 20 18 17 18 16 17 12 15 19 19 18 17 15 15 14 13 12 12 13 12 10 9 6 7 6 5 3 5 10 12 13 13 12 13 12 12 11 10 11 10 9 6 7 7

GFSWCAN_sfc_temp_099.txt.gz
Temp
47 47 47 47 47 47 47 47 47 47 48 48 48 48 48 48 49 44 41 43 38 33 35 40 41 36 38 37 32 36 32 35 33 30 28 29 25 34 33 34 35 32 29 27 30 25 25 54 52 42 47 49 51 51
46 47 47 46 46 47 47 47 47 47 47 47 48 48 48 48 48 48 39 44 45 36 35 42 44 46 45 44 38 38 35 33 35 31 31 33 28 33 35 28 37 32 37 33 35 34 47 52 50 52 53 51 50 50
46 46 46 46 46 46 46 46 46 46 47 47 47 47 48 48 48 47 42 43 41 35 35 35 36 46 51 49 48 36 37 37 34 34 35 34 30 35 29 33 33 40 45 39 39 45 48 51 53 54 56 55 53 52
45 46 46 46 46 46 46 46 46 46 47 47 47 47 47 48 48 48 42 44 41 37 26 33 48 43 49 50 48 46 45 40 39 39 34 33 30 41 33 34 35 40 42 40 39 44 45 48 52 54 55 54 53 52
45 45 45 45 45 46 46 46 46 46 47 47 47 47 48 48 48 46 45 44 45 37 29 33 41 48 51 48 46 46 46 42 38 35 32 32 36 37 37 38 36 45 40 36 36 45 43 45 50 53 53 50 50 48
45 45 45 45 45 45 46 46 46 46 46 47 47 47 48 48 47 42 34 42 45 43 34 29 39 43 46 47 45 43 43 41 37 35 34 34 41 36 29 30 42 44 46 44 42 49 46 53 55 53 50 48 47 44
45 45 45 45 45 45 45 45 46 46 46 46 47 47 48 48 44 37 37 41 45 44 32 30 29 40 45 44 42 40 41 37 36 37 33 33 34 37 32 28 45 49 48 49 51 51 48 50 47 50 51 50 47 43
44 45 45 45 45 45 45 46 46 46 47 46 47 47 47 47 44 39 44 47 46 37 36 28 26 32 42 34 32 39 35 38 38 36 36 32 36 33 29 40 45 46 48 46 48 49 48 49 49 48 48 48 46 41
43 43 44 44 45 46 46 46 47 47 47 46 47 47 44 39 35 39 47 47 45 39 32 31 27 27 38 34 37 37 38 31 38 33 33 34 32 28 37 38 40 41 41 41 45 44 44 42 41 42 42 42 40 41
44 44 45 46 46 46 46 46 47 47 47 47 43 34 30 36 47 46 41 37 36 37 37 31 35 29 37 35 33 33 34 32 29 32 37 33 31 36 38 38 38 39 39 40 36 35 36 35 35 36 37 36 36 37
45 45 45 45 46 46 46 46 47 47 46 39 33 34 40 47 40 35 31 31 32 30 34 34 35 33 38 32 32 34 32 32 26 31 32 30 29 31 34 34 36 35 36 36 36 35 35 33 32 33 33 33 32 32
45 46 46 46 46 46 46 47 46 42 40 42 41 43 42 37 33 30 29 31 30 28 32 30 32 36 36 40 33 33 31 32 27 35 31 26 26 29 30 30 32 32 32 32 33 32 31 30 29 29 29 28 27 26
45 46 46 46 46 46 46 46 46 47 48 45 41 35 34 31 26 26 24 24 23 30 33 32 32 34 34 38 32 31 29 27 35 31 23 23 26 28 28 29 29 31 30 30 29 29 28 27 26 25 24 25 24 23
45 46 46 46 46 46 46 47 48 46 43 36 32 28 28 24 28 26 28 30 31 32 31 32 30 33 33 32 32 29 30 32 26 23 18 23 25 26 28 28 27 25 27 26 24 24 23 23 21 20 20 21 21 20
44 45 46 46 46 46 47 46 45 43 37 31 31 23 24 28 29 29 31 31 30 33 33 30 32 33 32 31 32 31 28 24 21 17 21 23 26 26 26 25 20 23 24 24 20 16 15 17 16 15 17 18 18 16
43 43 42 44 45 45 46 45 42 41 34 30 26 26 28 27 26 27 28 28 30 30 32 34 31 31 29 27 28 22 24 18 18 22 23 24 23 24 23 20 19 17 17 16 19 16 15 15 15 15 16 16 16 16
45 38 43 44 46 47 47 41 38 33 30 27 22 26 27 25 24 24 27 27 31 29 32 31 28 26 32 24 20 22 14 20 23 23 23 19 17 15 21 19 21 19 16 15 13 15 15 15 15 15 13 14 15 15
39 41 44 47 47 46 42 40 32 29 23 25 21 21 19 21 21 24 27 28 28 29 29 25 28 21 14 17 14 20 23 23 23 19 16 17 17 15 20 21 21 19 15 14 16 15 16 15 15 14 14 14 14 13
43 43 46 46 45 40 33 33 33 23 24 24 26 26 24 23 25 25 25 28 28 29 27 23 17 15 13 16 16 19 20 21 22 22 14 13 14 16 18 17 18 18 18 19 19 18 18 18 18 18 16 15 13 12
45 46 46 46 47 36 32 30 35 26 21 22 24 23 23 24 25 23 22 24 24 22 17 14 12 14 16 18 20 21 21 24 23 22 19 15 21 17 17 16 15 15 18 19 19 19 18 17 18 17 16 15 13 12
45 44 47 45 39 37 32 29 28 27 27 25 27 25 22 23 20 18 18 23 17 15 14 16 17 18 21 21 22 23 22 24 21 21 21 17 17 20 22 23 20 20 18 17 16 16 16 14 15 16 14 13 13 13
42 45 40 41 34 33 30 32 28 30 26 25 25 26 20 15 15 17 22 15 14 16 18 17 18 20 19 19 20 21 22 23 22 22 22 23 19 19 19 17 18 17 17 17 17 15 15 15 15 14 13 13 14 14
43 41 34 34 28 26 25 34 27 29 22 23 26 22 20 19 21 26 14 17 17 20 21 21 21 22 20 20 20 19 22 22 21 21 20 20 19 19 18 19 19 16 15 16 18 17 16 17 16 14 14 14 13 13
37 27 23 22 25 21 26 23 29 27 24 23 20 15 17 19 24 16 12 14 17 21 20 20 22 20 20 19 16 16 18 21 19 17 19 19 17 17 18 18 18 18 18 18 18 17 16 15 16 15 15 14 12 12
19 15 19 15 23 18 15 15 18 19 15 16 15 14 16 23 14 11 11 14 14 14 17 20 18 17 15 14 15 15 17 18 16 14 16 17 17 17 16 17 17 19 19 16 15 14 14 15 14 14 14 13 12 11
8 12 14 17 16 17 19 13 12 12 12 10 10 17 18 10 5 5 12 12 8 11 10 14 16 12 11 12 11 12 13 17 17 14 14 15 15 17 15 14 13 14 19 17 14 12 13 12 12 11 10 11 11 10
6 8 19 27 25 23 15 15 19 12 8 7 10 12 8 -0 0 10 13 16 13 13 15 14 16 15 14 15 16 16 14 15 13 15 16 17 16 16 14 11 10 14 18 17 15 13 12 11 10 10 8 8 9 8
16 17 5 12 14 18 7 7 6 5 7 15 12 1 0 3 6 13 12 15 15 15 15 14 14 14 13 13 13 13 12 16 13 13 14 14 15 15 16 14 14 18 14 15 14 12 12 11 9 8 8 6 5 6
12 16 13 3 8 10 11 7 6 11 14 15 3 3 6 14 12 14 14 17 21 20 16 14 17 16 12 9 7 8 9 9 6 7 5 3 2 9 12 13 14 15 11 11 15 15 14 13 12 9 6 6 6 6
12 19 9 4 2 5 13 11 9 9 14 12 14 15 13 13 17 20 18 15 10 6 5 5 6 6 8 6 -0 -0 2 1 5 5 -1 -1 1 2 4 9 10 9 7 5 5 5 12 6 8 3 2 1 -1 -2
21 16 10 9 7 13 16 18 18 18 15 13 10 8 6 6 7 8 12 15 14 18 10 1 2 -0 -1 -2 0 -1 -4 -1 -1 1 5 2 -2 -2 -2 -1 1 6 7 8 6 -0 1 5 3 -2 1 -2 -4 -5
15 9 6 4 10 16 19 14 10 8 8 5 3 5 6 7 4 7 7 12 12 6 9 3 -1 -1 -1 -1 -3 -2 -3 -6 -4 -6 -7 -7 -8 -5 3 5 3 -2 -2 -3 -3 -4 -5 -3 0 3 0 -3 -5 -9
15 13 11 8 6 7 12 9 9 7 7 5 5 6 4 4 1 4 7 13 11 4 4 0 -2 -3 -2 -1 -2 -4 -4 -8 -6 2 -2 -3 -7 -6 -8 -8 -4 -1 -2 -1 -3 -3 -4 -4 -6 -9 -10 -11 -12 -13

GFSWCAN_sfc_temp_102.txt.gz
Temp
47 46 45 47 47 47 48 48 47 48 47 48 48 48 48 48 48 42 36 39 37 31 33 38 39 33 34 33 29 33 31 33 30 28 28 27 24 33 31 34 32 29 24 21 25 22 23 49 49 40 44 46 48 48
47 46 46 46 46 47 47 47 47 47 46 46 47 48 48 48 48 46 38 44 41 35 32 40 41 42 41 40 34 35 33 32 35 30 31 31 28 31 31 27 34 28 33 30 32 32 45 48 47 51 52 49 46 47
46 46 46 45 46 46 47 47 47 47 46 47 47 48 48 48 48 46 41 42 40 35 35 34 34 43 46 44 44 31 33 38 33 36 32 33 29 34 27 29 31 37 39 37 36 43 43 44 49 53 54 48 48 49
46 46 46 46 45 46 46 46 46 46 46 47 47 47 47 48 48 48 40 43 40 36 28 30 43 38 45 45 43 44 41 39 39 37 34 32 29 39 32 34 32 36 39 38 38 42 45 47 49 48 50 51 48 45
44 44 45 45 46 46 46 46 46 46 46 46 47 47 47 47 48 45 42 42 44 37 28 31 39 44 46 43 42 43 40 38 36 34 32 30 35 35 36 36 33 40 35 34 33 41 40 44 48 51 48 47 46 43
45 45 44 45 45 45 45 45 46 46 46 46 47 47 47 47 48 41 34 43 45 43 34 27 36 39 43 43 41 40 40 39 38 34 32 35 39 36 31 30 41 45 44 43 38 44 44 48 48 50 46 45 43 41
44 45 45 45 45 45 45 45 46 46 46 46 47 47 47 47 44 36 36 40 46 43 32 29 27 36 41 42 38 37 39 35 35 34 34 33 33 36 31 28 40 43 44 43 43 45 40 42 41 45 46 43 40 37
44 45 45 45 45 45 45 45 46 45 46 46 46 47 47 47 46 39 43 46 45 35 34 29 25 28 39 32 31 35 33 35 36 32 33 34 33 34 30 36 39 43 45 43 42 43 42 43 42 40 41 42 40 35
44 44 44 44 44 45 45 45 45 45 46 46 46 47 44 39 34 39 47 46 44 39 31 30 22 22 37 34 36 36 37 31 37 32 30 32 29 30 35 35 34 34 35 37 40 38 38 35 35 37 37 35 34 33
44 44 44 44 44 44 44 44 45 47 47 46 43 34 30 35 46 45 40 36 36 36 36 29 30 27 36 33 32 32 34 29 28 32 35 31 31 33 33 33 34 34 34 34 32 30 31 30 31 33 34 35 35 33
42 42 42 43 43 44 44 46 47 47 46 39 33 34 39 46 40 35 30 30 32 30 33 33 33 32 37 32 32 33 30 32 26 28 30 29 28 28 31 30 32 33 33 32 32 31 30 28 28 30 30 30 30 30
43 44 44 45 45 46 46 46 47 42 40 41 41 43 41 37 33 28 28 30 29 26 29 28 30 35 35 39 32 32 30 31 26 34 26 24 23 27 28 28 28 29 30 31 30 29 28 26 26 27 26 26 25 25
45 46 46 46 46 46 46 46 46 46 47 44 40 34 32 31 24 21 22 24 21 25 29 27 27 32 34 36 32 32 28 27 34 29 20 21 25 26 26 27 27 29 29 27 26 26 26 24 23 23 22 23 24 23
45 45 46 46 46 46 45 47 47 47 42 35 31 27 27 24 24 23 27 30 31 32 28 28 27 33 32 30 27 28 29 31 20 22 17 21 24 25 26 26 25 23 25 23 21 22 21 20 18 18 17 19 18 19
46 46 46 46 46 45 46 47 46 41 35 30 28 21 24 25 27 28 31 30 30 32 32 33 31 31 31 28 31 29 27 20 19 15 19 22 24 25 23 22 21 20 19 18 15 13 13 14 14 13 16 16 16 15
46 46 44 45 45 44 44 44 41 39 33 28 23 25 27 24 23 26 27 27 30 29 32 32 28 28 24 30 26 21 20 11 15 18 21 22 19 20 18 18 16 13 13 12 13 14 12 10 10 10 12 12 12 12
43 40 44 44 44 44 45 39 36 32 28 25 19 24 23 23 21 23 26 26 29 29 31 28 26 23 30 20 18 20 10 16 21 22 21 18 16 15 17 16 15 15 13 10 12 13 12 13 14 12 9 11 13 13
39 43 45 45 44 42 39 37 31 28 23 24 19 20 18 18 16 17 22 26 27 28 28 23 25 18 9 14 9 15 20 21 20 20 18 12 12 11 17 14 15 15 11 11 13 10 10 10 11 11 12 12 12 12
42 42 46 46 44 37 32 32 32 23 22 23 23 21 19 17 22 21 22 23 25 26 23 19 14 12 10 13 13 14 16 19 19 18 16 14 13 17 16 14 14 16 17 17 17 17 14 12 14 13 13 13 10 11
45 45 45 46 44 34 30 27 31 25 19 20 21 19 18 18 18 16 19 21 22 20 15 12 10 11 12 16 19 20 21 23 22 18 18 16 15 12 10 13 11 10 15 16 15 14 14 15 16 15 14 13 11 10
43 43 44 42 37 34 28 26 24 23 25 20 23 22 15 20 16 14 15 21 16 13 11 14 13 17 18 19 20 21 22 23 20 19 18 17 17 18 19 15 16 16 14 11 10 11 11 12 14 14 12 11 12 12
38 44 36 37 32 31 28 27 25 25 23 24 24 24 15 11 9 13 20 14 12 14 14 14 17 16 17 17 18 19 21 22 21 20 20 20 15 16 17 17 17 15 14 12 14 12 13 14 14 14 12 12 14 13
40 38 31 31 25 23 23 32 25 25 18 20 24 19 16 16 19 24 11 16 16 19 20 21 19 19 18 18 18 18 20 18 16 18 18 17 17 17 17 17 16 15 14 15 17 15 14 15 14 13 13 13 12 11
35 25 21 19 22 18 23 21 28 25 23 21 19 14 16 17 21 14 10 13 16 19 19 19 20 18 17 17 14 14 15 18 16 15 16 16 15 14 16 17 17 17 17 17 16 15 15 13 13 12 9 9 8 9
19 14 14 9 17 14 8 8 11 15 8 11 10 11 16 20 8 4 6 8 6 10 11 11 13 12 9 4 6 11 14 15 13 12 14 15 14 14 15 16 16 17 18 15 13 13 12 13 12 11 10 8 9 7
5 8 10 9 10 12 12 6 5 6 5 3 5 14 12 4 -1 1 9 7 3 5 2 6 2 7 7 6 5 8 10 10 13 11 12 14 14 11 10 9 10 13 18 15 13 12 12 12 11 10 10 11 10 7
1 3 16 25 22 19 9 10 14 7 2 2 5 3 -0 -8 -6 5 13 9 9 5 8 9 12 11 10 11 13 13 13 12 11 13 15 15 15 15 11 7 7 11 15 14 13 12 11 9 9 8 7 5 6 8
10 12 5 5 8 12 0 -1 -3 -2 0 11 7 -4 -5 -4 2 8 8 9 10 12 12 12 12 12 10 8 6 5 4 9 10 11 13 13 14 13 13 13 13 16 14 12 12 11 11 10 8 5 5 5 3 2
4 9 9 -2 1 4 3 -1 0 7 11 8 -3 -4 3 10 4 6 8 12 14 14 11 12 7 4 4 5 2 2 2 3 7 2 -3 -6 -4 4 7 10 10 6 6 8 15 12 10 8 7 7 6 4 -0 -0
7 10 1 -6 -3 1 3 0 -1 -3 9 8 12 13 10 10 13 14 11 10 8 3 -6 -2 -2 2 -4 -4 -9 -4 -2 -3 -2 -5 -8 -9 -4 -4 -9 -2 3 7 -2 -1 -1 1 9 7 7 1 -2 -2 -3 -5
14 5 1 0 4 6 7 8 10 7 0 -0 -3 -1 1 6 6 5 6 3 9 -0 1 -3 -6 -13 -4 -7 -10 -13 -11 -9 -11 -4 -2 -5 -11 -11 -5 -1 -6 -6 -4 -3 -8 -7 -4 -3 -7 -8 -8 -6 -7 -9
1 -4 -0 2 7 9 6 -1 -2 -1 -7 -6 -6 -9 -4 -4 -4 3 6 0 3 -2 -8 -5 -2 -4 -11 -13 -15 -14 -10 -14 -14 -14 -14 -15 -16 -15 -11 -10 -11 -12 -9 -11 -13 -13 -10 -5 -3 -4 -11 -13 -15 -14
3 5 -1 4 2 1 5 3 1 1 -2 -3 1 -0 -3 -4 -5 2 5 5 1 -0 -3 -7 -10 -12 -9 -7 -8 -13 -12 -14 -12 -2 -6 -6 -10 -10 -17 -19 -17 -13 -9 -9 -13 -13 -12 -11 -14 -15 -17 -18 -19 -20

GFSWCAN_sfc_temp_105.txt.gz
Temp
47 47 48 47 47 48 48 48 48 48 48 48 48 48 48 48 48 40 35 39 36 31 31 36 37 31 31 32 25 30 29 30 29 25 28 27 23 29 27 31 30 27 23 18 23 21 21 46 46 38 42 47 49 47
47 47 47 47 47 47 47 47 48 48 47 47 47 47 47 48 48 45 36 39 40 35 31 38 39 41 39 38 32 32 30 28 34 29 30 28 24 30 30 25 33 27 31 29 30 29 41 43 43 47 48 46 45 46
46 46 46 46 45 45 46 47 47 47 47 47 46 47 47 48 48 45 39 40 39 35 34 34 34 42 43 43 43 31 31 36 34 36 31 30 27 30 26 28 31 34 37 32 34 38 40 43 46 47 48 47 46 46
46 46 46 46 46 46 46 46 46 46 47 46 46 47 47 48 48 47 39 39 38 36 28 29 41 36 43 43 41 42 39 37 36 36 31 29 27 36 29 33 32 34 34 36 36 40 42 44 44 46 47 46 43 42
46 46 46 46 46 45 45 46 46 46 46 46 47 47 47 47 48 44 39 40 42 36 27 29 38 43 45 40 39 39 37 34 33 33 32 29 32 33 34 34 33 37 34 32 32 38 40 42 43 48 46 44 42 40
45 45 45 45 45 45 45 45 46 46 46 46 46 47 47 47 47 40 34 41 42 42 34 25 37 38 40 41 38 36 38 36 37 33 31 34 38 34 29 30 40 43 42 38 34 41 41 41 43 46 42 41 40 37
45 45 44 43 44 45 45 45 45 46 46 46 46 47 47 47 43 36 34 40 45 43 32 28 26 34 38 38 35 34 36 34 34 34 30 31 33 35 30 28 36 40 42 41 41 38 35 36 34 39 41 39 37 34
45 45 45 44 45 45 45 45 45 45 46 46 46 46 46 47 45 39 42 46 44 36 34 29 25 27 37 30 31 34 31 33 32 33 34 31 32 31 29 36 35 34 40 38 39 40 38 39 39 38 38 38 35 32
44 44 44 44 45 45 45 45 45 46 46 46 46 47 43 40 35 38 47 46 43 38 30 30 21 21 36 34 35 35 32 29 34 31 31 31 29 28 32 32 30 31 31 32 38 33 35 32 32 34 35 33 32 31
44 44 44 44 45 45 44 45 45 46 45 45 43 34 31 36 45 46 40 34 33 34 36 29 28 25 33 33 32 32 33 29 27 31 34 30 30 31 31 30 30 31 31 32 30 28 28 27 28 30 32 32 32 32
44 44 44 44 44 45 45 45 45 45 44 38 32 33 39 46 40 35 30 30 31 28 32 33 30 29 36 31 31 32 30 29 25 27 29 29 26 27 29 28 29 30 32 30 30 30 27 26 26 28 28 28 28 28
44 44 44 44 45 45 44 44 44 41 38 40 40 42 41 37 32 28 27 30 29 26 27 29 32 33 35 37 32 32 29 30 25 33 28 23 21 25 27 27 27 28 28 27 27 25 27 25 24 25 24 23 24 25
43 43 43 43 43 43 43 44 45 46 47 43 38 34 31 30 24 20 20 26 27 25 26 27 32 31 34 36 32 31 28 28 33 25 19 21 24 26 25 26 25 27 27 25 24 24 23 22 21 20 18 19 20 19
42 43 44 44 44 45 46 46 46 46 41 35 31 27 25 21 25 22 25 27 28 32 31 25 31 32 32 31 31 23 29 31 26 20 14 19 23 25 25 25 23 20 22 21 19 20 19 18 16 16 15 17 15 16
45 45 46 45 46 46 46 46 46 40 35 29 29 21 18 22 28 28 31 30 30 31 32 32 30 31 28 27 28 28 26 16 16 14 16 21 24 25 22 22 20 19 16 14 11 12 10 11 12 11 13 14 15 14
45 45 44 46 46 46 46 44 41 38 32 27 23 23 25 23 22 25 26 26 30 29 31 33 30 28 24 29 25 17 19 13 15 18 21 22 21 21 20 20 15 12 13 11 11 12 10 9 8 8 10 10 10 10
45 42 45 45 43 43 45 37 35 32 28 25 18 22 19 22 19 22 24 25 29 28 30 29 26 22 27 20 17 18 9 13 17 20 20 20 18 14 12 16 16 14 10 9 8 9 8 9 10 10 6 9 10 10
40 42 44 43 42 41 38 36 31 28 22 22 18 17 18 19 18 19 21 23 25 28 28 22 24 16 7 12 7 10 15 18 18 14 12 13 14 14 18 15 15 14 11 9 10 8 7 8 9 8 8 9 9 10
43 43 45 45 41 35 32 30 31 21 20 20 21 20 19 18 20 19 19 21 23 24 23 18 9 6 5 11 9 10 13 15 14 13 15 14 16 16 12 12 14 15 16 14 16 12 8 9 9 8 9 9 7 7
45 45 45 45 44 32 29 26 30 24 17 19 20 15 15 13 15 12 18 20 21 19 13 10 8 9 10 13 16 15 16 19 20 17 16 15 13 13 11 10 9 9 11 11 12 12 12 12 13 11 8 6 5 7
42 42 43 41 36 33 28 25 23 23 23 18 21 21 12 18 14 12 13 20 15 11 10 11 10 14 17 17 19 20 20 21 18 18 16 15 15 17 14 13 15 12 9 6 7 5 9 10 11 11 8 9 10 12
38 43 35 37 32 30 26 25 24 24 23 21 22 21 10 8 7 10 18 13 11 12 12 11 13 14 15 15 17 18 19 20 19 18 18 18 15 15 14 14 14 11 11 11 13 11 12 13 14 13 11 11 12 12
39 37 30 31 25 23 21 31 22 24 16 19 22 16 13 14 16 23 9 15 14 19 20 18 18 18 16 17 18 17 18 17 15 16 16 16 16 15 16 16 15 13 13 14 15 14 13 14 13 11 11 12 11 11
34 24 20 19 21 16 22 19 26 23 21 18 18 13 14 14 19 12 9 10 15 18 18 18 18 15 15 14 12 12 13 15 12 12 13 11 11 12 14 16 16 16 16 16 15 13 12 9 11 11 10 8 8 7
22 16 16 9 14 11 7 5 9 14 5 9 8 9 13 17 5 2 1 7 8 4 4 9 11 9 4 2 5 8 8 11 6 7 10 11 8 10 13 15 15 16 16 13 10 10 9 10 9 10 9 6 8 6
6 7 9 8 7 10 8 4 2 3 3 2 6 11 7 0 -5 -4 5 1 2 4 -4 0 3 5 7 5 5 6 7 7 10 8 10 12 12 7 5 7 9 10 14 11 9 7 9 9 9 10 9 10 9 7
1 3 15 22 20 17 6 7 12 7 -0 1 4 -4 -4 -11 -11 3 11 7 7 5 5 7 9 9 7 8 10 10 9 9 9 11 12 13 13 12 7 5 5 9 14 12 10 9 7 6 7 8 7 7 7 7
8 11 5 2 5 10 -2 -5 -6 -4 -1 9 5 -8 -8 -6 0 6 6 5 6 10 10 10 10 8 6 5 3 2 5 3 5 6 7 8 8 8 8 9 10 14 11 10 8 8 8 8 6 5 4 3 1 1
3 7 8 -4 -0 2 1 -3 -2 8 11 3 -6 -6 2 8 5 4 5 8 9 11 5 3 -4 -6 -1 -0 -2 -1 -3 1 -1 -7 -10 -12 -10 -1 3 5 1 1 -0 5 13 10 8 5 4 3 1 0 -2 -3
5 8 -1 -7 -3 -1 -1 1 -1 -0 7 6 10 12 9 7 9 8 9 8 4 -3 -8 -6 -7 -8 -12 -11 -12 -7 -6 -8 -6 -3 -8 -12 -8 -5 -11 -7 -4 -4 -7 -3 -3 4 10 6 6 0 -1 -2 -3 -5
10 2 -1 2 1 2 3 -4 1 1 -4 -4 -8 -3 -1 4 5 7 3 -4 -2 -8 -4 -10 -12 -16 -12 -15 -16 -15 -12 -11 -12 -9 -10 -13 -15 -16 -15 -13 -14 -15 -13 -11 -10 -9 -9 -10 -13 -12 -10 -10 -12 -13
-2 -7 -0 -1 1 -0 -1 -8 -6 -5 -12 -7 -7 -13 -7 -7 -8 -0 2 -0 -9 -8 -12 -13 -7 -9 -15 -18 -20 -20 -13 -17 -17 -17 -16 -17 -18 -20 -18 -17 -19 -16 -13 -14 -17 -16 -14 -12 -13 -8 -14 -15 -16 -16
-2 -4 -3 3 4 -1 1 0 -2 -1 -7 -7 -5 -7 -7 -8 -7 -2 1 -1 1 -2 -5 -10 -13 -13 -13 -13 -13 -16 -16 -17 -16 -6 -8 -9 -13 -13 -21 -22 -21 -15 -12 -17 -19 -18 -15 -13 -14 -15 -17 -18 -20 -21

GFSWCAN_sfc_temp_108.txt.gz
Temp
46 47 47 47 47 47 48 48 48 48 48 48 48 48 48 48 48 39 36 39 36 30 30 34 35 30 30 29 24 29 27 29 29 22 24 26 24 27 26 27 27 27 24 19 22 19 21 43 44 36 40 43 46 47
45 46 47 47 46 46 47 48 48 48 47 47 48 48 47 48 48 43 32 38 41 34 30 36 38 40 38 38 30 30 28 26 31 26 27 28 25 29 28 23 33 23 31 28 29 28 39 41 41 45 46 45 43 45
44 45 46 46 46 47 47 47 47 47 47 47 47 47 47 48 48 44 38 39 38 34 34 32 33 40 41 41 42 31 30 34 31 36 26 28 24 28 24 27 30 33 35 31 31 36 37 39 42 44 45 43 43 44
44 44 46 46 46 46 46 47 46 47 47 47 47 47 47 47 47 44 39 39 38 34 27 29 40 35 41 41 40 40 36 36 37 36 31 28 27 34 27 32 30 34 33 33 33 37 39 41 41 43 44 43 41 41
43 44 45 46 45 45 45 45 46 46 46 47 47 46 47 47 47 42 38 39 40 35 27 29 36 42 43 39 37 38 36 33 30 29 31 29 31 31 33 33 31 36 33 31 31 37 38 37 41 44 41 40 41 38
43 44 45 45 45 45 45 45 45 46 46 46 47 46 46 46 47 40 33 39 41 41 33 24 33 36 38 38 35 33 34 32 31 29 29 34 38 34 27 27 35 36 34 36 33 37 36 37 37 41 38 38 37 36
43 44 45 45 45 45 45 45 45 45 46 46 46 47 47 47 40 35 34 39 44 42 32 24 27 33 35 35 33 32 34 35 34 30 28 30 32 34 27 27 33 35 36 35 36 35 33 33 31 34 36 37 35 33
42 42 45 45 45 45 45 44 44 45 46 46 46 46 47 46 44 38 42 45 44 37 34 24 26 28 36 28 27 32 31 33 34 30 33 32 31 29 27 33 32 33 35 34 34 34 32 33 33 35 36 37 33 31
44 44 45 44 44 45 45 45 45 46 46 46 46 46 43 39 34 38 47 46 42 36 30 30 21 18 37 34 35 34 33 28 32 30 29 30 29 26 30 30 29 29 29 29 36 32 32 30 30 32 33 32 33 31
44 44 44 44 44 44 44 45 45 45 46 46 41 34 30 35 45 45 38 34 33 32 34 26 27 22 31 33 31 31 33 24 25 30 32 30 27 29 29 29 29 29 30 29 28 27 26 25 26 28 28 29 29 29
44 44 44 44 44 44 45 45 45 45 45 37 32 32 38 45 40 35 30 29 31 28 31 29 29 25 33 28 30 32 30 29 24 26 28 27 25 25 27 27 28 28 28 26 27 27 27 25 24 25 25 26 27 27
44 44 44 44 44 45 45 45 45 41 35 37 39 42 41 36 33 28 27 29 29 26 26 29 31 31 33 38 31 32 28 28 24 31 27 21 20 25 26 25 26 27 27 26 26 24 24 24 22 23 21 21 21 23
44 44 44 44 44 45 45 45 44 42 42 41 38 33 32 30 25 20 19 25 26 25 24 28 30 29 33 36 32 31 27 26 33 25 18 19 24 25 24 25 25 26 25 24 22 22 21 20 18 18 16 17 18 17
44 44 45 45 44 44 45 44 44 42 39 34 30 25 25 22 24 22 26 26 27 32 31 29 32 32 32 31 31 26 29 29 25 16 15 18 22 23 24 25 23 20 19 19 15 17 16 16 13 13 13 15 15 14
44 44 44 44 45 44 44 43 43 40 34 29 28 19 24 22 22 24 31 29 29 31 32 31 31 30 29 29 29 27 25 15 15 14 16 21 24 23 21 22 18 16 12 11 9 9 7 8 9 8 11 11 12 10
43 43 41 43 44 44 44 43 40 37 32 27 23 23 25 20 18 22 25 26 29 28 30 32 30 27 25 27 25 18 18 14 13 17 21 22 21 21 20 19 15 13 13 9 10 11 9 7 6 7 8 9 9 9
43 41 45 45 45 43 44 37 35 31 27 24 15 20 15 14 14 19 21 22 27 26 29 28 25 20 23 19 17 16 9 14 17 18 18 17 18 19 19 19 17 16 12 10 8 9 6 8 9 9 5 6 8 8
42 44 45 44 41 41 36 35 31 28 21 20 15 15 13 13 15 16 19 20 23 27 27 20 24 17 6 13 9 12 16 17 17 15 16 13 11 9 16 16 15 16 13 10 9 6 6 6 7 6 5 5 5 4
41 42 44 44 41 34 30 30 30 20 20 20 20 20 17 17 19 18 18 21 23 24 22 18 11 5 4 11 8 9 12 16 13 14 14 9 11 11 11 12 15 14 13 11 12 9 6 7 8 8 7 6 5 4
44 44 44 44 43 33 28 26 29 23 15 17 18 16 16 13 15 12 17 19 20 18 13 9 7 9 9 13 14 16 18 21 20 16 14 12 10 8 5 8 6 6 9 10 9 11 10 8 9 8 6 4 3 5
43 42 43 40 34 31 26 24 22 22 22 17 19 20 12 15 11 12 13 19 14 11 10 9 9 14 16 16 18 20 19 20 17 19 17 13 14 15 10 10 10 10 8 5 5 5 4 4 6 7 2 1 6 9
37 42 33 36 31 30 25 25 23 23 21 19 18 19 7 4 4 9 17 12 10 11 11 11 13 15 15 14 15 17 18 18 18 17 17 17 14 14 12 11 11 9 9 8 11 9 11 12 11 10 6 6 9 8
38 36 31 31 23 20 19 29 20 22 14 17 18 13 9 7 11 21 8 13 11 17 16 16 15 17 16 16 17 16 17 17 15 14 15 14 15 15 15 15 14 11 11 12 14 12 11 13 12 10 11 11 9 8
34 23 19 17 19 15 22 17 25 21 19 15 13 11 12 13 18 11 8 9 13 17 17 17 17 14 13 12 9 9 9 11 9 9 10 11 12 12 13 14 15 15 16 16 14 11 10 6 9 9 7 6 5 4
23 16 16 7 12 10 5 2 7 13 5 8 10 9 10 13 2 -0 -3 3 6 4 5 8 10 9 5 3 6 6 8 9 6 6 9 11 9 10 13 13 13 13 15 10 7 7 6 8 8 6 7 2 6 2
8 7 8 7 6 10 8 4 2 3 3 2 6 7 4 -2 -7 -7 4 -1 -2 -1 -7 -2 1 4 5 4 2 4 4 6 8 6 8 11 10 1 1 3 5 9 13 10 10 8 8 7 7 9 7 8 7 4
2 4 13 19 18 15 4 6 11 6 -1 0 0 -5 -5 -12 -12 -1 9 4 5 2 3 4 7 7 6 6 8 8 6 7 7 8 10 10 10 10 4 -0 2 8 12 10 6 6 6 6 7 8 7 6 5 5
7 10 6 1 4 8 -3 -4 -5 -3 -1 8 3 -9 -8 -6 -2 3 5 3 6 10 8 7 7 6 5 3 2 6 6 3 3 4 4 5 4 3 2 2 2 9 5 8 6 4 4 4 5 5 4 3 0 1
2 5 7 -4 -0 0 -1 -5 -2 7 10 1 -7 -8 -1 6 2 2 4 6 8 8 2 -0 -6 -9 -4 -3 -5 -4 -2 -1 -1 -5 -10 -12 -11 -4 -3 -3 -5 -5 -8 -1 8 4 1 -1 -1 -3 -3 -3 -4 -3
3 8 -0 -7 -6 -3 -3 1 -1 -2 6 4 8 10 7 3 4 3 6 4 3 -3 -9 -10 -13 -13 -13 -13 -13 -8 -9 -11 -8 -2 -8 -12 -10 -10 -14 -15 -12 -11 -14 -12 -9 1 8 3 3 -4 -7 -7 -10 -9
8 2 -1 -1 -2 0 -0 -5 -6 -6 -8 -7 -10 -6 -2 -0 5 6 4 -2 -6 -7 -6 -11 -13 -18 -13 -16 -17 -16 -12 -13 -18 -15 -14 -16 -16 -17 -18 -19 -20 -21 -18 -15 -15 -14 -12 -15 -17 -15 -13 -13 -15 -15
-2 -5 -0 -2 -0 -2 -2 -10 -11 -10 -13 -7 -10 -15 -10 -8 -8 -1 -2 -7 -11 -8 -13 -17 -12 -10 -15 -20 -24 -23 -16 -18 -18 -18 -18 -19 -19 -21 -22 -20 -23 -19 -17 -17 -18 -19 -16 -7 -13 -16 -19 -19 -20 -19
-3 -5 -5 -1 -1 -0 0 -1 -1 -3 -8 -9 -9 -12 -12 -7 -6 -1 -2 -5 -4 -3 -8 -12 -16 -15 -15 -15 -15 -19 -18 -20 -19 -7 -10 -10 -15 -15 -23 -25 -23 -18 -16 -18 -21 -20 -18 -17 -19 -18 -19 -21 -23 -24

GFSWCAN_sfc_temp_111.txt.gz
Temp
47 46 46 47 47 48 48 48 48 48 48 48 48 48 48 48 48 41 40 39 37 31 33 35 36 33 34 33 28 32 31 33 31 27 26 27 26 30 28 31 30 28 27 26 29 25 23 45 46 38 42 46 49 49
46 46 46 45 47 47 47 48 48 48 48 48 48 48 48 48 48 43 35 39 43 34 33 37 39 41 41 40 35 34 32 30 34 29 31 30 27 30 30 24 33 27 31 29 32 33 40 44 42 46 46 46 46 47
45 46 45 44 47 47 47 47 47 47 47 48 47 48 48 48 48 43 36 38 38 34 34 35 34 41 42 42 44 31 35 38 33 37 31 29 24 31 26 28 29 34 37 32 32 39 40 40 45 44 45 43 45 46
45 46 46 41 46 46 46 45 46 47 47 47 47 47 48 47 47 44 37 39 38 34 28 32 41 37 43 42 41 42 40 39 39 37 32 30 27 36 30 32 29 32 34 32 33 39 39 37 41 44 43 42 42 41
44 45 45 43 45 46 46 45 45 46 47 47 47 47 47 47 47 42 38 39 41 35 28 31 37 42 44 40 38 39 38 37 35 31 30 29 35 33 34 33 31 35 31 28 29 34 35 32 36 39 38 39 40 38
44 45 44 43 45 46 46 46 46 46 46 47 47 47 47 46 44 40 33 39 40 40 32 26 36 37 40 39 37 35 36 35 34 32 31 35 39 35 29 28 36 36 34 33 31 35 33 36 35 36 35 34 35 33
44 44 43 43 44 46 46 46 46 46 46 46 47 46 47 46 41 34 31 39 43 41 32 28 29 37 39 36 35 34 36 35 34 33 32 34 35 36 32 28 34 35 36 34 33 33 31 31 30 32 35 33 32 33
44 43 42 43 45 45 45 45 45 46 46 46 46 46 46 46 44 37 41 43 43 37 35 28 27 31 38 31 31 34 32 34 35 34 34 33 34 34 28 32 32 33 35 32 33 33 31 31 31 32 33 35 33 31
42 41 43 45 45 45 45 45 45 45 45 46 46 46 41 39 34 38 47 45 41 36 30 29 26 23 38 35 35 33 35 28 35 31 31 33 31 28 30 30 30 30 28 28 33 32 32 29 30 31 30 30 31 30
41 42 43 45 45 45 45 45 44 44 46 46 41 33 30 35 44 45 38 34 33 33 33 29 31 26 34 33 32 32 33 30 27 32 35 30 30 29 29 29 29 29 28 29 28 26 27 26 26 27 27 28 28 28
42 43 44 44 45 45 45 44 45 45 45 36 32 32 39 44 39 34 30 30 30 28 31 33 31 29 35 30 31 33 30 30 25 29 29 28 25 25 27 26 28 29 28 27 28 27 27 25 24 25 25 25 26 27
44 44 44 44 44 44 45 45 45 40 37 37 37 41 39 36 32 29 27 30 28 28 30 30 32 32 33 38 32 32 30 29 23 32 28 23 22 25 26 25 27 27 27 26 25 24 24 23 22 23 21 21 21 22
44 44 45 44 44 45 45 45 45 42 41 40 36 32 32 31 25 20 21 26 26 29 28 31 30 31 33 36 32 31 28 25 33 27 22 21 24 25 25 26 25 26 25 23 22 22 21 19 18 17 16 17 19 18
44 44 45 44 44 45 45 45 45 42 38 32 31 24 24 22 25 25 28 29 30 31 30 32 32 33 33 32 32 28 30 30 24 19 17 21 23 24 25 24 23 20 19 19 16 17 15 15 14 13 13 15 14 15
44 44 45 44 45 45 45 45 44 39 33 30 29 20 23 25 27 28 31 30 29 32 32 32 33 33 31 30 31 29 26 18 18 16 19 23 24 24 22 22 21 19 17 15 13 11 10 11 11 10 11 12 13 11
44 44 41 44 44 45 45 43 36 35 30 27 23 23 26 24 23 23 25 26 28 28 31 31 31 28 27 28 26 20 20 17 16 20 22 23 22 22 21 20 18 16 15 13 13 13 11 9 9 9 9 10 9 10
44 39 44 44 44 44 42 35 34 29 27 24 16 20 17 18 17 20 21 21 26 26 30 30 27 23 26 21 17 17 14 18 20 20 21 21 20 18 18 20 18 18 14 13 12 12 11 11 12 11 9 10 11 11
38 42 44 44 42 36 34 33 29 26 20 20 17 16 16 15 15 18 20 21 23 27 27 23 26 19 15 17 13 15 18 19 21 20 19 18 18 16 18 18 17 18 16 14 13 12 11 11 11 12 11 11 11 11
42 42 43 42 41 34 30 30 31 20 20 20 20 20 17 17 19 18 20 22 24 24 23 19 13 10 10 14 14 16 18 20 19 19 19 16 17 16 15 16 16 15 15 15 15 14 13 12 13 14 14 14 12 12
43 43 43 44 43 32 28 27 31 23 17 18 19 16 16 14 17 16 19 20 21 19 14 11 10 12 14 16 17 18 20 23 22 20 19 19 17 15 14 16 15 14 15 14 14 13 14 13 14 14 14 13 12 10
41 41 42 40 34 31 27 25 22 22 21 17 20 20 15 16 14 14 16 20 15 12 11 13 13 16 18 18 19 21 19 21 19 21 20 18 18 18 16 15 15 15 14 13 13 12 12 12 13 13 12 11 12 13
37 42 35 37 31 30 25 26 23 24 21 19 19 19 11 9 8 11 18 14 13 13 15 15 15 16 16 15 16 18 19 19 19 19 18 19 17 17 16 16 16 14 14 14 15 14 14 15 15 14 13 12 13 13
39 36 30 30 23 20 18 29 21 23 14 16 19 14 10 10 14 21 10 14 14 18 18 17 17 18 16 17 17 15 15 17 15 15 16 16 16 16 17 17 17 15 14 15 16 15 14 14 14 14 14 14 13 12
34 22 18 17 20 14 21 16 25 21 18 16 14 10 11 13 18 12 8 11 13 18 17 17 16 13 13 12 10 10 10 13 12 12 12 15 14 14 16 16 17 17 18 17 16 15 14 14 13 13 12 12 11 11
24 15 15 7 13 11 6 4 8 13 6 9 11 10 9 15 6 3 3 7 10 9 7 10 12 12 9 8 9 10 10 13 12 11 12 14 13 15 15 15 15 15 17 15 14 13 12 13 12 12 12 11 10 9
10 7 9 7 6 10 8 4 2 4 5 3 7 8 6 3 -2 -3 7 6 6 7 4 6 8 9 8 9 9 10 10 11 12 10 11 12 11 11 10 10 11 12 15 14 14 13 13 13 12 11 11 10 9 9
4 4 13 18 17 14 6 7 12 7 1 3 4 -2 -1 -7 -6 3 9 8 11 8 9 9 12 12 10 9 10 10 10 11 11 11 11 11 10 10 9 8 7 10 13 13 12 13 13 12 12 12 11 11 11 10
7 9 5 2 3 8 -1 -2 -2 -1 2 9 5 -6 -4 -1 1 7 10 7 8 10 9 8 9 9 8 7 7 9 9 7 8 8 9 9 7 5 4 4 4 5 5 9 13 11 12 11 11 11 11 11 9 9
1 5 8 -4 -1 0 -1 -3 0 8 10 3 -4 -5 0 7 6 7 8 10 10 10 6 4 -0 -1 0 0 -2 -0 3 7 7 1 1 3 2 5 1 1 2 2 2 7 10 11 9 8 8 8 6 7 5 7
3 8 1 -6 -7 -4 -2 2 2 2 6 6 9 9 7 5 5 6 8 7 7 4 0 0 -3 -0 0 1 -1 -1 -4 -5 -0 5 4 2 2 1 -2 -3 -2 -1 -2 3 6 8 9 7 7 5 4 3 4 4
7 2 -2 -2 -3 1 1 -3 -7 -4 -5 -3 -6 -2 1 3 7 6 3 0 -2 -4 -1 -3 -6 -8 -3 -4 -2 -2 -2 -3 -10 -7 -4 -4 -4 -3 -3 -6 -6 -7 -3 -0 1 2 2 0 1 2 3 1 -3 -1
-4 -7 -3 -5 -2 0 1 -5 -7 -4 -4 1 -3 -9 -4 -1 -1 4 0 0 -0 -1 -6 -4 -1 -0 -6 -9 -12 -10 -12 -6 -6 -7 -6 -5 -3 -6 -8 -8 -9 -5 -2 -2 -2 -3 -1 0 -0 -1 -2 -3 -5 -5
-7 -8 -7 -0 -2 0 1 2 1 -0 -2 -2 -5 -9 -7 -1 -0 3 -0 -1 1 2 -2 -3 -5 -6 -7 -7 -5 -8 -12 -8 -13 -4 -9 -9 -13 -10 -9 -8 -6 -4 -3 -3 -5 -4 -4 -4 -4 -5 -7 -8 -9 -9

GFSWCAN_sfc_temp_114.txt.gz
Temp
46 47 47 47 47 47 48 49 49 49 49 49 49 48 49 48 48 47 47 50 44 39 43 42 43 40 41 41 35 40 38 38 39 32 33 34 32 36 32 34 32 31 31 32 34 29 27 49 49 39 45 50 46 47
46 46 47 47 47 46 45 47 47 48 49 48 48 48 48 48 48 48 43 49 47 37 43 45 47 49 48 47 42 41 38 35 41 36 39 38 33 35 34 27 36 30 31 31 36 39 48 50 44 46 49 47 47 50
46 45 46 46 46 46 46 45 46 47 48 48 48 48 48 48 48 48 46 44 40 35 37 40 41 49 51 50 52 37 40 43 37 39 35 34 27 38 30 34 31 37 42 32 33 38 37 37 42 46 46 45 46 50
45 45 45 45 45 44 46 46 47 47 47 48 47 47 48 48 48 47 46 46 42 37 31 41 50 45 52 52 49 48 47 47 45 40 35 35 32 42 35 35 31 34 34 31 34 37 35 34 36 39 41 41 42 47
45 45 45 45 44 42 45 46 46 47 47 47 47 47 48 48 48 47 47 47 49 41 31 38 46 51 51 50 47 47 45 43 38 34 33 32 41 39 39 37 32 36 31 29 29 33 33 32 35 37 35 34 37 42
45 45 45 45 44 42 43 46 45 46 47 47 47 47 48 47 47 43 35 46 49 47 36 31 47 45 47 48 45 44 44 41 37 34 33 39 45 39 32 33 35 36 35 33 30 35 33 34 35 36 34 32 32 32
45 44 44 45 44 42 45 44 43 44 47 47 47 47 47 46 45 41 40 43 48 47 33 30 37 44 45 44 43 40 41 37 37 36 35 39 42 40 36 32 40 36 34 34 33 33 32 31 31 33 36 35 35 38
44 44 44 44 44 42 45 45 44 45 47 46 47 47 46 46 45 41 43 44 45 40 38 29 34 39 45 36 35 40 35 35 36 39 39 38 42 40 33 38 36 35 34 34 36 36 31 32 33 32 36 37 35 36
44 44 44 44 43 44 45 45 45 44 46 47 47 46 43 39 36 44 46 44 43 37 32 32 31 31 41 37 39 36 38 30 41 34 36 39 36 32 34 34 33 32 30 31 35 35 35 33 34 34 33 34 34 34
44 44 44 44 42 44 45 45 45 46 46 46 44 36 32 38 46 46 39 35 34 34 34 30 43 34 40 36 34 35 35 34 29 36 42 34 35 31 31 32 32 32 32 34 31 29 29 29 30 30 30 30 31 32
44 43 43 43 43 45 45 44 45 46 45 41 33 34 44 45 41 36 31 31 31 29 33 37 40 36 43 34 32 37 34 33 29 34 33 33 30 28 31 31 33 33 33 32 32 30 31 28 28 29 29 29 29 29
44 42 43 44 45 45 45 43 43 43 40 41 41 41 39 36 33 30 30 32 31 32 38 33 34 38 42 44 36 35 31 33 27 39 31 28 25 29 30 30 31 32 31 30 30 28 28 26 26 26 25 24 24 24
42 44 45 45 45 45 44 44 45 45 45 43 37 33 32 32 27 26 24 29 31 36 36 34 31 37 39 39 34 33 29 30 39 29 28 25 27 28 29 30 29 30 29 28 27 26 25 23 21 21 20 21 22 22
44 44 44 44 45 44 45 45 44 44 41 34 30 28 29 27 31 32 34 37 35 37 36 37 34 34 36 33 34 29 32 32 28 25 22 26 26 27 28 28 26 23 22 21 20 20 19 19 18 17 17 19 19 19
44 44 45 45 45 45 45 44 44 40 35 31 32 28 28 31 32 32 34 34 33 37 38 36 35 36 33 31 33 33 29 24 25 23 23 26 27 27 25 25 24 22 20 19 19 17 15 16 16 15 16 17 18 17
44 44 44 44 45 45 42 40 37 37 34 29 28 28 30 30 29 30 31 30 33 34 37 35 33 30 31 32 29 24 25 23 23 25 27 28 25 25 24 23 22 21 21 20 19 19 16 14 14 15 16 16 16 16
45 42 44 44 45 43 41 36 35 31 30 26 25 27 27 29 28 27 29 28 31 31 32 34 29 27 32 28 23 26 24 25 25 25 28 26 25 23 23 23 22 21 20 20 18 18 17 18 18 18 16 16 18 17
43 44 44 45 41 39 36 36 34 30 23 27 25 24 24 25 25 26 27 28 29 33 34 28 33 25 25 24 22 23 25 26 28 27 26 25 24 23 24 24 22 22 21 19 18 18 18 18 19 20 18 18 19 19
44 45 44 41 43 38 32 33 36 24 24 26 25 26 26 25 25 26 27 28 28 29 30 28 23 21 20 23 22 23 25 27 25 25 24 23 23 21 21 21 22 21 20 21 21 22 21 18 20 22 22 22 21 21
44 44 41 43 44 35 29 30 35 29 25 25 27 25 25 24 25 24 25 26 27 25 20 19 18 20 22 22 24 25 26 28 27 24 23 24 24 22 22 24 23 22 22 20 21 18 22 22 22 22 22 21 21 19
42 41 41 41 36 37 34 31 28 29 27 25 26 28 24 27 24 23 24 27 23 20 19 21 20 22 23 23 25 26 24 27 25 27 26 23 24 25 24 24 23 24 23 22 22 19 19 20 20 20 20 18 19 19
38 41 38 40 36 34 32 34 30 31 29 27 27 28 24 23 23 23 27 22 20 20 23 22 22 22 22 21 21 23 23 23 23 23 23 23 23 23 23 23 24 21 22 21 22 20 20 21 21 20 19 18 18 19
42 41 38 36 30 29 26 35 28 29 23 23 27 21 21 22 23 28 19 22 21 23 23 21 20 21 20 20 20 19 20 22 22 22 23 23 23 23 23 23 24 22 21 21 23 22 20 18 18 19 19 19 19 17
38 29 27 27 29 23 28 26 31 27 26 24 22 17 19 22 24 21 15 18 20 23 22 20 23 21 21 20 20 19 20 23 22 22 23 23 22 21 23 22 23 22 22 23 23 22 21 19 17 20 19 18 18 17
32 22 25 21 25 23 21 21 21 23 18 20 18 18 19 23 17 15 14 16 19 20 20 22 23 24 21 19 20 19 18 24 23 20 20 23 22 23 22 22 21 21 22 22 21 21 20 20 19 19 18 18 16 14
20 17 21 20 22 22 22 18 18 18 19 17 16 18 21 18 14 12 17 18 19 19 19 20 20 20 19 22 20 20 20 22 24 20 19 21 21 21 20 19 19 18 20 20 20 20 20 19 19 16 17 14 12 14
17 16 21 23 24 22 20 20 22 22 17 16 17 14 16 13 13 15 18 20 21 21 22 23 23 23 20 18 19 19 20 21 20 19 19 19 18 18 18 17 14 16 18 19 19 19 18 19 18 18 18 18 17 17
18 19 15 15 16 18 14 15 16 16 17 19 18 14 14 16 14 18 21 20 20 21 20 19 20 21 20 18 19 18 17 16 15 17 17 17 17 16 14 16 14 12 14 16 18 19 19 19 18 18 17 17 16 17
15 17 17 6 10 11 10 12 14 16 17 18 14 11 11 14 15 17 17 19 20 19 17 14 12 14 13 13 13 15 18 18 14 9 8 14 14 14 14 14 15 14 16 17 17 17 16 17 17 17 15 17 16 16
13 18 11 7 6 8 11 13 13 13 15 16 17 14 14 14 14 17 17 18 18 18 17 16 14 16 13 14 11 9 10 11 11 13 13 13 13 12 11 11 11 12 13 15 15 16 13 15 15 15 14 14 16 14
16 16 11 11 8 11 12 10 10 12 13 12 13 13 12 14 15 16 17 17 14 12 13 11 10 13 12 11 13 11 9 8 4 6 9 10 11 11 10 8 9 11 12 12 13 14 14 13 14 12 11 9 7 10
14 11 9 7 8 12 13 14 14 13 13 14 11 11 10 13 11 13 13 13 13 13 12 14 13 12 11 9 7 7 5 7 6 6 5 8 10 7 8 8 8 11 11 11 11 11 9 9 11 10 9 6 5 4
10 11 11 11 9 9 11 12 13 10 12 11 11 12 13 14 10 14 10 13 16 17 14 14 13 9 7 7 8 5 6 6 2 4 -0 -1 -4 0 7 9 10 10 8 9 9 9 7 6 7 4 3 2 2 1

GFSWCAN_sfc_temp_120.txt.gz
Temp
46 46 47 46 46 47 48 49 49 49 49 49 48 49 49 49 49 49 49 53 47 41 46 49 50 45 46 45 40 44 43 44 40 34 34 35 33 36 35 38 35 32 30 30 31 30 25 36 40 31 35 40 38 36
46 46 46 46 46 45 45 48 49 49 49 48 48 49 49 49 49 49 43 52 54 42 43 50 51 53 52 51 45 45 43 41 44 37 37 37 33 36 36 29 39 30 32 30 31 30 35 38 34 36 38 37 36 35
46 46 46 46 46 46 45 45 48 48 48 48 48 49 49 49 49 49 46 48 47 41 42 45 45 53 57 54 55 41 46 48 45 47 38 37 31 40 31 33 33 41 42 33 35 36 36 35 36 35 36 35 38 37
46 46 46 46 47 46 46 45 46 48 48 47 48 48 49 49 49 49 45 49 48 44 34 42 57 52 58 57 54 52 49 50 48 45 38 36 33 44 36 39 37 37 39 34 36 39 38 39 35 35 35 35 35 38
46 46 46 46 46 46 46 46 45 46 46 48 48 48 48 49 49 50 49 50 52 44 34 38 50 54 57 55 52 52 49 46 44 38 36 33 42 41 43 42 37 39 33 31 30 33 32 35 35 36 35 34 35 35
45 45 45 46 46 46 45 45 46 45 47 46 47 48 48 48 48 46 36 48 52 50 38 33 49 49 53 53 51 49 48 46 43 38 37 42 46 40 34 34 36 39 36 35 33 35 35 36 36 36 34 35 35 34
45 45 45 45 46 46 45 44 45 45 45 45 46 48 48 48 47 43 41 46 52 51 37 34 38 49 52 50 49 47 48 43 43 38 37 39 41 41 36 32 36 39 38 36 38 36 34 34 32 34 37 38 38 39
45 45 45 45 45 45 44 44 45 45 45 45 46 47 47 47 47 43 47 50 52 44 43 32 35 36 50 40 38 45 40 40 39 38 41 39 42 41 33 39 41 41 39 40 41 43 39 39 41 40 40 37 37 35
45 45 45 45 45 45 44 43 45 46 45 46 47 47 44 42 38 41 46 48 50 42 34 34 31 31 46 40 39 38 40 32 43 34 37 40 37 32 36 38 39 38 38 37 40 42 40 38 38 38 38 34 33 32
44 44 44 44 45 44 43 43 45 45 45 47 44 35 32 40 45 45 41 38 35 39 39 33 42 32 42 39 35 36 37 33 30 36 44 35 35 36 38 38 38 39 39 38 34 32 32 32 33 34 34 33 31 30
44 44 44 44 44 44 43 45 44 44 45 40 35 35 46 48 44 38 31 31 34 30 38 39 40 36 46 35 34 39 34 35 29 36 35 34 31 30 36 35 38 39 38 36 37 34 33 30 28 30 29 28 28 27
45 44 44 44 44 43 43 42 43 43 43 45 45 46 44 41 34 29 29 34 32 32 40 37 39 43 44 48 38 38 33 35 28 42 34 30 27 33 34 34 35 35 35 34 34 31 29 26 25 26 25 24 23 24
44 44 45 45 44 42 41 43 46 48 49 49 43 35 34 34 26 25 24 29 31 39 40 39 34 40 43 44 37 34 29 30 39 31 29 26 29 31 32 32 32 32 31 29 28 28 26 25 23 22 21 22 23 22
44 44 44 44 43 40 43 45 47 49 49 39 33 26 28 27 31 34 35 36 41 41 41 39 35 37 40 35 36 28 33 33 28 27 24 27 28 29 30 30 28 24 23 24 22 22 21 22 21 21 20 21 21 20
44 44 44 41 43 43 44 46 48 49 42 34 34 28 30 35 34 34 37 37 39 43 40 37 37 39 34 32 34 34 29 27 27 23 25 28 28 28 27 27 26 23 23 23 22 19 18 18 20 19 20 21 21 20
44 41 41 43 43 44 45 46 47 47 40 34 31 28 33 33 31 33 33 33 38 38 42 40 36 31 31 34 31 30 29 25 25 27 28 29 27 27 26 25 24 24 24 23 22 22 20 19 19 20 20 20 19 19
42 38 41 42 43 46 47 47 45 39 35 30 30 32 31 31 30 30 32 32 35 34 33 36 30 31 33 31 29 30 25 26 27 28 29 28 26 26 26 25 24 25 23 23 22 22 21 22 22 23 20 21 21 21
42 43 43 43 45 45 45 45 40 36 29 31 29 29 30 31 30 30 31 32 32 35 36 32 38 32 29 27 26 26 28 29 29 28 27 27 27 26 27 25 25 25 23 22 22 22 23 23 23 23 23 25 22 22
42 42 45 46 48 44 38 39 42 31 29 30 29 30 30 29 31 32 31 32 34 37 35 35 30 29 26 28 27 28 29 29 26 26 26 26 26 25 25 25 25 25 23 23 24 24 24 22 23 24 24 25 23 23
43 44 44 45 47 42 35 35 43 31 28 30 32 30 30 29 30 31 31 33 34 33 30 28 26 26 27 28 30 29 30 30 29 25 24 25 26 26 25 26 26 26 26 25 25 22 25 24 25 24 23 22 22 20
44 43 44 47 44 43 38 36 33 34 32 30 32 32 28 31 30 29 29 34 30 27 25 26 24 25 28 28 30 30 28 29 26 28 27 24 27 28 27 27 28 27 26 25 24 23 24 23 23 24 23 21 22 22
41 42 43 44 38 39 36 39 35 36 33 30 30 32 28 27 27 28 33 29 26 25 28 26 26 26 25 24 25 27 27 28 29 29 28 28 26 26 25 26 26 25 25 24 24 23 23 23 23 23 23 22 22 21
44 44 40 38 32 32 29 40 31 32 27 27 30 27 26 27 29 34 26 27 25 28 28 27 26 26 24 25 26 26 28 28 27 27 27 26 27 27 26 26 26 24 23 24 26 24 23 19 22 22 23 23 23 21
42 34 32 31 32 28 32 30 35 32 31 27 27 24 26 28 31 28 24 25 25 27 25 24 26 24 26 26 26 25 27 28 27 27 28 27 25 24 26 25 25 25 25 26 25 24 23 23 18 22 22 21 20 20
32 28 29 26 32 28 26 27 28 28 25 27 25 25 25 28 24 24 23 23 24 24 25 27 28 28 26 24 25 25 24 28 26 24 26 27 26 26 25 25 24 24 25 22 21 22 22 22 22 21 21 20 19 19
27 26 26 29 29 28 28 25 26 26 27 25 26 28 28 25 22 22 27 25 24 25 25 26 27 27 27 28 25 24 25 29 28 24 24 26 25 23 22 22 21 19 23 22 21 20 21 21 21 20 20 18 12 16
24 25 29 33 34 33 28 30 33 29 25 24 25 23 23 19 22 24 28 29 26 28 30 31 31 30 28 25 26 26 27 26 25 24 25 25 24 23 21 18 16 17 21 21 20 20 19 19 20 20 20 21 20 19
28 29 23 26 27 30 26 27 26 25 28 31 28 22 21 24 23 26 28 29 30 30 30 30 31 30 28 26 25 24 23 22 22 23 23 23 23 21 21 21 19 18 19 20 19 20 19 19 19 20 19 18 17 19
26 28 25 17 22 24 25 26 27 27 26 28 26 24 22 22 24 25 26 28 30 28 24 23 22 25 25 25 25 24 23 23 21 17 16 18 16 16 20 19 20 19 19 20 18 17 17 17 16 17 18 18 18 19
23 29 23 18 17 20 22 23 23 23 25 24 25 22 20 20 23 26 26 25 24 23 24 23 22 22 19 19 18 19 21 21 19 19 18 17 15 17 17 17 17 17 18 18 18 18 16 17 17 17 17 17 16 15
27 26 23 23 20 21 20 21 21 22 23 22 23 23 18 17 20 25 25 26 26 25 23 21 21 23 21 21 19 16 14 16 14 15 18 17 17 17 16 15 16 17 18 17 16 16 15 16 17 16 15 13 12 11
24 23 19 16 17 18 20 19 19 20 19 19 19 19 17 17 15 18 22 25 23 21 21 22 21 20 23 19 18 17 16 14 13 13 15 16 16 15 16 16 16 17 16 16 15 15 15 15 15 13 14 12 10 8
21 22 22 20 16 15 18 19 19 18 19 19 19 18 20 21 17 20 24 25 24 24 22 23 24 20 17 17 16 15 15 13 10 9 7 6 4 9 14 16 16 15 14 14 14 14 13 13 12 11 10 7 7 7

GFSWCAN_sfc_temp_123.txt.gz
Temp
46 46 46 46 46 47 49 49 49 50 49 49 49 49 49 49 50 44 41 44 39 32 36 42 43 37 37 36 29 36 34 33 30 24 24 23 24 30 29 33 30 26 24 22 27 24 19 34 36 27 31 36 35 33
46 46 46 46 46 45 46 49 49 49 49 49 49 49 49 49 49 48 37 46 46 36 35 43 44 45 44 42 36 36 34 35 37 28 30 28 25 25 28 20 33 26 28 25 28 27 34 35 33 35 35 34 34 35
46 46 46 46 46 45 45 45 48 48 49 49 48 48 48 49 49 47 39 42 40 34 34 35 37 45 50 47 47 32 35 40 36 37 26 26 22 27 20 23 26 35 38 28 30 31 33 33 36 36 36 34 35 37
46 46 46 46 46 45 45 44 44 47 48 48 48 48 48 49 49 48 39 41 39 36 23 33 50 44 51 49 46 44 41 42 40 36 27 25 24 35 24 30 24 30 31 27 30 35 35 35 34 35 36 35 34 36
46 45 46 45 46 46 45 45 43 44 48 48 48 48 49 49 49 45 41 42 43 35 28 31 43 48 51 48 45 44 41 37 33 29 25 24 32 31 31 30 22 32 26 21 20 32 31 34 34 34 35 35 34 34
45 45 45 45 46 46 46 45 44 44 46 48 47 48 48 48 48 39 30 41 44 41 30 23 40 43 47 47 44 41 40 37 34 30 27 32 39 31 22 25 33 34 33 31 29 36 36 35 34 35 34 34 35 34
45 45 45 45 45 46 45 45 45 45 46 47 48 48 48 48 42 35 34 39 47 42 28 23 27 40 47 44 40 39 39 36 34 31 28 30 32 33 25 24 35 36 36 35 35 33 29 31 26 31 35 35 36 36
45 45 45 45 45 45 45 45 46 45 47 45 46 47 47 48 46 39 40 47 45 37 34 21 26 33 42 30 29 36 32 34 32 30 31 30 33 31 25 35 37 39 38 39 39 41 35 34 36 34 35 35 33 31
45 45 45 45 45 45 45 45 46 46 46 45 45 46 42 39 35 39 47 46 42 36 24 24 21 20 39 31 34 32 34 27 33 27 29 30 28 26 34 36 35 36 35 34 38 36 36 33 34 34 31 30 28 28
44 44 45 45 45 45 44 45 45 46 45 44 41 34 30 35 46 45 39 33 33 30 31 25 31 26 35 30 24 28 28 25 21 30 36 27 26 33 35 35 36 36 35 34 30 27 28 27 27 29 27 27 27 26
45 44 45 44 45 44 44 45 45 45 44 38 32 33 38 47 38 35 27 24 23 25 30 30 31 28 38 27 25 28 25 27 24 29 30 28 26 28 34 34 35 34 33 32 31 27 26 25 24 25 24 24 25 24
45 45 45 44 44 44 44 45 45 38 36 39 39 42 38 36 29 24 22 24 26 26 30 26 28 33 35 38 28 28 27 27 22 34 29 23 25 29 31 30 30 30 30 28 28 26 24 23 23 23 22 21 22 21
45 45 44 44 44 44 44 45 42 45 46 43 38 32 30 26 14 17 14 21 19 27 30 29 27 32 34 36 28 26 25 21 31 23 21 21 26 28 28 27 26 27 26 25 24 24 24 22 21 21 19 20 20 20
44 45 44 44 44 43 44 42 43 46 43 33 26 22 21 16 21 24 24 25 30 30 33 32 28 29 29 27 29 27 26 26 24 24 19 24 25 26 26 25 23 21 22 21 19 20 18 20 18 18 17 19 19 18
44 44 44 44 43 42 41 45 46 44 35 28 28 15 20 27 29 29 29 31 33 34 35 30 30 32 26 24 31 28 19 21 24 20 21 24 26 26 25 24 22 21 18 16 12 10 9 11 14 12 13 14 17 15
44 44 42 43 42 41 42 44 42 39 31 28 28 22 28 28 27 32 30 31 33 33 32 32 29 28 23 26 26 26 22 21 21 22 23 25 24 24 22 21 19 15 17 12 12 15 11 8 8 10 9 10 9 9
41 37 42 43 42 42 43 41 38 35 30 29 24 26 28 29 28 28 30 30 30 29 27 30 26 26 28 25 24 24 21 21 23 23 24 22 20 19 16 18 16 19 14 13 12 12 11 14 12 12 9 9 10 10
37 42 43 43 44 44 41 40 32 30 27 27 27 26 27 27 28 28 29 30 30 31 29 28 30 30 22 21 22 23 25 24 23 21 21 21 21 21 22 18 18 20 14 13 16 15 14 16 19 19 18 18 15 16
40 41 43 45 45 39 33 34 36 27 27 27 25 24 27 24 27 26 27 28 30 29 28 29 28 24 19 24 23 24 23 21 21 20 20 20 21 19 17 18 18 14 14 14 16 15 13 13 14 14 15 18 13 11
44 45 45 46 46 37 32 30 37 29 26 26 27 26 26 25 27 28 29 29 30 30 27 22 18 23 23 24 25 25 26 25 23 19 18 18 19 20 18 20 16 18 19 17 15 16 22 18 14 15 13 12 12 9
43 43 44 43 39 38 33 31 30 29 28 27 27 27 23 26 26 27 26 29 24 20 18 18 19 20 22 23 26 25 25 26 22 24 21 20 23 20 17 18 21 21 19 17 19 15 14 11 12 17 12 7 13 8
38 44 38 40 35 35 32 34 30 30 28 26 27 29 24 23 24 24 27 22 17 16 20 17 17 18 18 19 21 23 20 22 23 24 21 21 17 20 14 16 18 15 14 15 17 16 12 11 12 16 11 12 12 7
42 41 34 34 29 28 25 34 26 28 22 23 27 24 23 24 24 28 18 19 16 21 23 21 21 20 18 14 16 16 17 19 18 17 17 14 14 14 15 16 15 19 15 12 18 17 11 13 11 8 14 14 17 14
40 31 30 30 29 23 28 26 31 29 27 23 24 22 23 24 24 19 19 17 15 21 19 17 19 17 16 18 15 15 15 18 17 20 17 16 14 12 15 14 13 11 13 15 14 13 11 9 9 16 11 12 6 10
25 23 26 21 27 22 24 25 24 26 22 24 21 21 17 21 14 16 17 15 18 19 18 21 20 19 17 18 11 12 15 20 16 14 15 15 12 12 12 14 13 11 13 10 7 8 14 5 7 6 6 4 6 6
23 19 20 24 23 25 25 22 23 23 23 22 22 20 19 16 16 15 18 16 19 19 19 20 19 22 18 19 16 13 14 19 20 14 11 15 14 12 14 16 12 9 11 6 5 5 6 13 11 8 4 7 3 1
16 18 24 30 28 29 23 24 28 23 21 21 18 14 17 11 10 15 20 19 20 21 20 23 21 21 19 19 20 17 17 17 18 16 16 17 15 14 9 7 5 5 9 6 4 4 3 3 3 7 10 14 5 2
24 24 12 17 20 24 18 23 16 15 21 25 23 16 14 10 12 18 19 22 24 24 24 23 24 24 21 19 18 16 13 12 14 15 15 14 11 7 7 6 6 13 5 3 2 4 2 2 4 11 7 6 6 1
19 23 20 10 14 17 17 17 19 19 19 19 19 14 10 15 18 21 21 21 24 23 18 17 18 20 19 16 15 13 11 9 8 4 3 7 4 5 4 3 4 2 2 9 12 6 3 1 1 1 1 2 1 -2
19 24 17 10 7 10 13 16 16 16 17 16 17 16 14 12 15 20 21 21 20 19 17 16 15 15 13 15 15 11 11 9 9 5 1 3 5 3 0 -0 1 0 1 0 0 4 12 2 9 7 5 -1 -2 -0
23 21 19 16 11 14 15 15 13 14 12 12 13 15 11 10 14 19 19 17 19 20 18 15 14 13 12 10 8 4 -0 1 1 2 7 6 4 3 -2 -1 -1 0 1 -0 -2 -1 -3 -1 1 4 -2 -6 -6 -7
19 19 13 11 11 12 13 11 10 10 9 8 12 11 10 7 6 9 15 18 22 19 16 17 16 15 14 12 9 6 9 7 2 -1 1 3 4 -1 -0 0 -0 -1 -2 -2 -3 -3 -4 -1 -2 -2 1 -5 -8 -9
17 16 17 12 7 7 10 11 12 11 12 11 12 10 11 11 11 12 14 17 21 20 19 19 17 14 13 12 10 9 5 4 2 6 3 1 -2 0 -2 -1 -2 -2 -2 -3 -4 -5 -4 -5 -8 -9 -10 -11 -11 -13

GFSWCAN_sfc_temp_126.txt.gz
Temp
46 46 46 47 46 47 48 49 49 49 49 49 49 49 49 49 49 43 39 43 39 31 35 40 41 33 34 32 28 32 31 31 27 22 23 21 23 28 27 30 28 24 24 18 23 20 17 33 35 26 30 33 34 34
46 46 46 46 46 46 47 48 49 49 49 49 49 49 49 49 49 45 36 43 44 35 35 41 42 44 42 40 33 32 31 32 32 26 27 27 25 22 27 19 31 19 25 22 23 23 33 36 33 35 35 33 33 34
46 46 46 46 46 46 46 48 48 48 49 49 49 49 49 49 49 45 37 39 38 31 32 34 35 42 46 44 43 31 32 37 33 33 26 25 21 24 19 21 22 31 36 25 28 30 33 33 36 36 37 34 35 36
46 46 46 46 46 45 45 46 48 48 48 48 49 48 49 49 49 45 37 39 37 32 22 31 46 41 47 45 43 42 39 39 37 34 25 23 24 32 23 28 22 26 28 24 28 32 33 33 34 33 36 36 35 36
45 46 45 46 46 46 45 45 45 47 48 48 48 48 48 49 49 42 38 39 41 33 26 29 38 44 47 44 43 42 39 35 31 27 23 23 29 29 29 28 20 29 25 22 21 32 30 33 33 34 34 34 34 34
46 45 45 45 45 46 45 45 45 45 47 47 48 48 48 48 46 38 29 38 42 39 28 21 36 40 43 43 41 39 38 33 30 28 25 29 35 29 20 23 31 32 34 31 28 36 36 34 33 33 31 34 34 32
45 45 45 45 45 45 45 45 45 45 47 47 47 48 48 47 39 34 31 37 44 40 26 22 27 37 43 40 36 35 36 33 31 29 27 28 30 33 23 23 33 34 34 33 32 33 30 27 24 30 32 33 34 34
45 45 45 45 45 45 45 45 45 45 45 47 48 47 47 48 43 36 38 45 42 35 31 20 24 30 39 29 30 34 31 33 34 30 28 28 30 29 24 32 35 36 37 36 36 38 34 30 31 30 32 32 30 29
44 45 45 45 45 45 45 45 45 46 46 47 47 47 42 36 35 36 46 44 39 33 22 21 20 18 37 31 32 30 31 25 31 24 26 29 27 25 31 34 33 36 33 32 33 33 32 30 29 28 26 27 26 26
44 45 44 44 45 45 44 45 45 46 43 43 40 33 29 35 45 44 37 28 26 27 28 22 27 20 34 28 22 27 24 23 20 27 32 27 27 31 33 31 31 31 31 33 30 26 27 25 25 25 24 25 25 24
44 44 44 44 45 44 44 45 45 43 42 36 32 32 35 46 38 33 27 19 20 26 27 27 28 26 35 30 22 24 24 25 23 27 28 27 25 28 29 29 31 29 29 28 27 25 24 24 23 23 23 23 24 23
45 45 44 44 45 45 45 45 43 38 37 38 39 41 39 34 27 19 22 22 24 24 26 24 25 29 30 36 27 27 25 25 21 31 27 22 23 26 27 26 26 27 27 26 26 24 24 23 22 22 21 20 19 18
44 44 45 45 45 45 45 44 44 45 46 41 36 30 27 22 20 20 16 21 16 25 26 25 22 28 31 35 30 23 18 20 28 23 18 19 25 25 24 24 24 26 25 24 23 24 23 21 20 20 18 17 19 18
44 44 44 44 44 44 44 42 43 45 40 31 26 22 16 17 19 21 22 23 27 25 27 29 25 27 28 28 28 22 24 21 14 21 19 20 24 25 24 24 23 21 21 20 19 19 18 18 15 15 13 15 15 17
44 44 44 44 44 44 44 42 43 42 34 27 24 11 19 20 22 28 28 24 29 28 32 31 30 30 27 24 31 30 25 21 21 19 15 22 25 25 23 23 21 20 16 15 13 12 10 11 11 9 10 11 14 9
44 43 39 44 43 44 44 43 41 37 31 26 25 20 19 24 26 31 26 29 31 33 32 32 28 26 22 23 27 26 22 20 21 19 22 24 22 22 21 20 19 16 15 11 9 9 7 5 6 8 7 6 5 5
42 35 43 44 41 44 42 37 34 33 28 26 24 19 22 25 26 23 29 29 26 32 30 28 25 22 26 21 23 23 15 17 21 22 18 20 19 16 15 17 15 17 11 10 9 9 10 10 7 10 8 7 6 6
37 41 44 43 40 38 39 36 29 28 24 22 21 18 19 20 21 19 28 29 30 29 29 28 29 26 15 21 20 21 21 20 19 19 16 14 17 18 21 20 19 17 13 12 13 10 10 13 15 15 13 12 11 12
39 40 41 40 40 34 29 31 32 24 20 21 20 19 20 17 16 18 24 29 30 30 28 27 22 16 16 17 18 19 19 16 19 14 12 13 18 19 18 18 17 15 13 12 15 13 10 10 10 10 11 15 8 11
43 42 41 42 42 33 30 29 34 28 23 26 24 21 21 16 21 26 25 25 29 28 21 17 12 15 16 20 17 22 20 22 20 17 13 15 17 16 15 16 12 10 14 14 11 16 16 13 10 11 9 9 7 4
41 40 43 40 36 35 30 28 27 27 26 26 26 25 18 23 20 20 25 26 21 15 13 11 10 19 13 17 17 25 23 24 21 18 16 13 10 14 10 10 14 17 14 16 13 8 7 6 7 9 4 3 1 3
35 42 35 37 32 32 30 31 29 29 27 26 25 26 17 17 18 17 24 18 11 13 13 11 12 13 16 15 17 19 18 19 18 21 17 18 14 13 13 15 15 6 7 8 12 8 6 8 12 9 4 3 6 3
40 38 33 33 28 26 25 31 25 27 19 19 25 22 19 19 21 28 12 17 12 14 11 16 10 11 15 10 18 18 17 21 19 17 17 18 16 13 12 9 15 12 7 8 12 10 7 8 6 4 3 7 9 9
38 30 28 28 26 20 26 23 29 27 24 21 22 21 22 22 22 15 14 8 12 16 14 14 18 15 16 19 16 12 11 17 15 12 14 17 14 7 12 11 10 8 11 11 10 7 6 2 3 9 0 4 -1 0
26 22 22 19 24 20 22 22 22 24 20 22 21 19 16 19 9 8 12 10 17 12 15 17 18 18 15 9 6 9 10 19 16 15 12 12 7 10 10 10 9 7 8 11 4 5 8 1 -1 -1 0 -4 3 -0
17 16 19 18 18 20 22 19 21 20 19 19 19 18 13 10 13 10 15 11 10 12 14 17 17 15 15 16 12 11 13 16 18 11 9 11 14 14 9 7 2 4 5 1 0 -1 -1 3 6 5 -2 1 1 -4
12 12 21 28 26 26 17 20 24 17 15 19 14 9 8 9 6 12 16 13 14 12 18 19 21 19 17 13 14 12 14 16 14 13 12 12 12 10 12 10 3 4 4 1 -2 -1 -3 -5 -4 -3 -3 8 3 -2
17 18 14 12 14 19 12 17 12 11 15 21 17 10 9 9 10 14 15 13 15 21 19 21 23 22 19 17 15 14 14 14 13 13 13 11 7 3 3 2 2 8 -0 -5 -4 -6 -4 -5 -2 2 -1 3 2 -4
12 16 16 7 8 10 9 12 11 14 15 14 11 8 7 11 11 14 17 17 21 20 17 16 16 17 15 11 7 14 14 14 8 -1 -5 -5 -3 2 -3 -3 -4 -4 -5 1 7 0 -2 -4 -2 -1 -2 -1 -3 -8
12 18 8 1 4 6 6 9 8 7 13 12 13 13 12 9 10 15 19 20 17 16 16 16 16 15 12 11 8 4 1 0 5 6 2 2 3 -1 -7 -5 -5 -7 -8 -7 -5 -2 5 -4 2 -1 -6 -7 -9 -8
17 14 13 7 2 4 5 4 2 5 3 6 2 5 6 5 10 13 15 14 16 16 15 12 6 12 12 11 10 6 5 3 -1 4 4 5 2 -0 -4 -7 -8 -8 -9 -8 -9 -9 -9 -8 -6 -7 -10 -12 -14 -14
9 11 10 8 6 4 4 3 0 1 -1 1 4 0 3 2 2 6 13 19 17 15 13 15 14 12 12 11 8 4 7 7 4 6 5 4 1 -4 -5 -6 -8 -7 -7 -9 -10 -10 -10 -6 -8 -9 -12 -14 -16 -16
8 5 6 3 1 -0 2 5 7 4 3 -0 0 3 5 8 7 10 8 14 21 18 16 14 12 11 10 10 9 6 6 3 2 10 6 4 -1 -3 -6 -7 -8 -6 -3 -6 -9 -7 -9 -10 -14 -15 -17 -17 -19 -19

GFSWCAN_sfc_temp_129.txt.gz
Temp
45 45 45 47 47 48 48 49 49 49 48 49 49 49 49 49 49 43 38 41 38 32 35 40 41 35 35 33 29 33 31 32 27 23 24 21 22 28 26 29 28 24 21 17 21 19 17 32 34 26 29 34 33 33
46 45 46 45 46 47 48 48 48 48 48 48 48 48 49 49 48 46 37 43 43 35 36 40 42 43 42 40 33 32 32 32 31 26 25 26 23 21 26 18 30 20 24 21 23 22 31 33 33 36 36 32 33 33
46 46 45 46 45 46 47 48 48 48 48 48 48 49 49 49 48 45 38 39 37 32 33 36 36 42 46 44 42 32 32 36 32 31 25 24 21 24 18 21 21 29 33 24 27 29 30 32 37 35 36 34 35 36
46 46 46 46 46 46 46 47 48 48 48 48 48 48 48 49 48 45 38 38 37 32 25 33 45 40 46 45 43 41 38 37 35 32 24 22 23 30 22 26 21 25 27 24 27 30 33 34 34 32 34 37 36 36
45 45 45 46 46 46 46 47 47 47 48 48 48 48 48 48 47 41 38 39 40 34 26 30 38 43 44 43 41 39 37 33 30 27 22 23 29 28 28 27 18 27 23 20 20 29 29 32 35 33 32 32 35 32
45 45 45 45 45 45 45 45 47 47 47 48 48 48 48 47 45 36 29 38 41 38 29 23 34 38 41 40 39 37 35 31 29 28 24 29 32 29 20 22 30 34 32 29 27 34 34 35 32 32 31 33 33 29
45 45 45 45 45 45 45 45 46 46 47 48 48 48 47 47 38 32 31 37 43 38 26 21 27 35 40 38 35 33 34 32 31 28 26 27 29 30 22 22 31 32 33 32 32 32 29 27 23 29 31 32 32 31
45 45 45 45 45 45 45 45 46 47 47 46 47 47 47 47 43 36 38 45 41 34 30 19 24 29 37 29 30 32 30 32 30 29 28 27 29 28 23 30 32 33 34 34 34 35 29 28 29 28 29 30 28 28
45 45 45 45 45 45 45 45 46 47 47 47 47 47 40 35 34 38 45 43 38 33 23 21 21 19 37 30 31 30 31 24 29 24 26 28 26 24 29 31 31 37 35 31 31 30 30 29 28 27 27 26 26 26
45 44 45 45 45 45 45 45 46 47 46 45 41 33 29 32 45 44 36 29 26 27 29 22 26 20 34 26 24 21 24 22 17 25 29 24 25 29 29 30 30 29 32 32 29 27 27 25 26 25 24 24 25 24
45 45 45 45 45 45 45 45 46 45 44 36 31 30 33 45 34 27 25 19 19 21 25 27 27 25 34 25 23 23 23 25 20 25 24 25 21 26 27 27 29 29 28 27 27 25 25 25 24 24 23 24 23 22
45 45 45 45 45 45 44 43 43 39 36 38 39 41 39 34 27 19 14 21 24 23 25 23 24 28 32 35 28 27 23 26 20 30 27 20 20 23 25 25 26 27 27 26 26 24 24 23 23 22 21 21 19 19
45 45 45 45 45 45 45 43 44 44 46 41 36 30 27 24 18 14 15 21 19 24 24 24 20 26 30 32 26 23 22 21 27 21 17 17 22 24 24 24 24 26 25 24 23 23 22 20 20 19 17 16 19 17
44 45 45 45 45 44 43 43 45 45 39 31 27 22 16 19 18 20 21 22 25 23 25 27 23 25 25 27 30 21 22 27 13 14 18 20 22 24 24 24 23 21 21 20 19 20 18 17 15 14 10 12 13 14
44 44 45 44 44 43 41 43 45 40 33 28 27 16 19 18 20 20 21 22 28 24 29 26 27 26 23 22 27 27 24 22 19 19 14 17 23 23 22 23 21 18 14 13 11 9 6 8 10 7 7 8 11 6
44 43 38 44 44 43 40 41 39 38 30 26 24 22 25 25 26 29 29 28 32 30 27 28 29 23 25 23 26 24 19 12 17 18 21 24 22 22 20 19 17 15 14 11 10 9 6 4 5 6 2 3 1 2
41 33 43 44 44 42 38 35 36 33 30 26 24 25 25 13 22 19 27 30 32 27 22 29 21 23 25 21 25 25 15 13 20 23 17 19 18 17 16 17 15 14 10 8 7 8 7 7 5 9 8 5 3 3
33 40 43 43 41 38 35 36 30 28 22 23 17 22 15 17 16 18 25 28 27 27 28 27 30 25 15 19 16 16 20 19 20 15 13 13 15 13 19 17 16 15 11 9 10 8 8 10 11 10 11 7 7 8
39 40 42 41 39 35 31 30 31 23 21 17 23 18 14 19 23 22 19 21 26 29 29 27 16 17 19 16 17 10 16 12 17 11 8 8 15 17 18 17 15 10 9 9 13 11 8 7 9 8 9 10 6 7
43 42 41 42 42 32 30 27 31 25 18 24 20 16 15 13 15 16 16 22 28 26 21 17 16 14 16 11 12 15 16 20 19 16 12 9 9 11 11 13 9 9 11 10 9 12 11 10 8 8 7 5 3 3
40 40 41 40 33 32 29 26 25 24 23 19 21 23 15 21 22 24 24 27 24 13 13 9 6 19 20 22 12 22 21 22 19 17 16 11 6 13 8 7 12 12 11 7 8 5 4 5 5 7 1 -1 -2 -0
34 42 32 35 30 30 29 29 27 27 25 23 23 25 16 15 14 14 23 19 13 11 11 9 18 18 18 17 11 15 17 16 15 17 15 16 9 9 8 8 12 4 6 7 9 5 4 6 9 7 2 0 2 1
39 37 31 32 26 26 23 29 25 26 19 19 25 19 13 15 19 27 10 15 10 10 9 8 7 7 13 10 17 15 13 19 15 14 14 11 8 6 9 8 10 8 7 7 8 7 5 5 4 0 -0 1 3 1
38 28 25 25 25 20 25 22 29 26 23 20 18 17 19 19 21 14 11 6 8 14 11 10 17 17 18 19 14 11 10 16 15 13 14 16 12 7 8 10 9 7 10 10 9 5 3 -1 -1 3 -4 -4 -7 -4
26 22 21 20 22 20 21 21 21 22 16 19 20 17 16 18 9 6 10 8 15 11 11 14 16 18 14 9 9 9 8 18 17 14 8 12 9 10 8 8 6 5 7 5 0 1 0 -6 -6 -4 -3 -6 1 -3
12 15 19 17 17 19 20 16 17 18 18 17 16 16 13 8 8 7 14 8 7 10 14 15 15 12 13 15 14 13 10 12 17 11 7 12 14 12 7 6 2 4 3 0 -0 -4 -2 -1 -0 -0 -4 -3 -4 -7
16 14 21 28 26 25 20 18 22 17 12 14 11 9 8 7 5 12 12 11 12 10 19 19 20 19 16 11 12 11 14 13 14 14 11 11 11 13 13 8 3 5 4 1 -2 -2 -3 -4 -5 -5 -4 -2 1 -2
17 18 15 14 17 19 13 12 12 12 15 18 14 7 6 9 12 12 13 12 10 19 20 20 20 20 18 15 13 13 12 12 11 12 12 10 7 3 1 5 5 7 -1 -6 -6 -10 -8 -8 -7 -7 -3 -1 -2 -8
14 16 17 10 8 9 10 14 12 13 14 13 9 7 9 11 7 9 15 12 16 20 18 15 11 13 12 9 5 11 12 12 7 -0 -5 -5 -4 1 -5 -6 -6 -7 -7 -4 2 -2 -3 -5 -3 -4 -6 -7 -12 -17
12 17 7 -1 5 7 5 8 7 4 11 11 12 12 11 7 7 11 14 14 17 17 16 16 14 14 12 11 3 2 -4 -3 2 9 6 1 3 -3 -5 -7 -7 -10 -12 -7 -6 -5 3 -4 -2 -9 -9 -11 -13 -13
16 14 11 5 2 -0 2 -1 -2 0 -2 2 -3 4 6 5 7 6 14 9 11 14 13 12 5 12 11 10 10 8 5 1 -1 3 0 -0 0 0 -2 -8 -11 -13 -12 -10 -11 -11 -12 -13 -11 -12 -13 -14 -16 -17
7 10 9 7 4 2 -2 -0 -2 -2 -5 -2 0 -4 1 3 4 6 9 16 15 14 9 13 12 10 9 10 9 7 11 9 6 5 6 6 3 1 -2 -6 -9 -7 -6 -10 -12 -12 -11 -9 -14 -15 -16 -16 -18 -19
4 3 2 -1 0 -0 -2 0 2 0 -0 -2 -4 -3 -0 4 5 7 5 10 16 17 14 14 7 12 12 12 10 5 7 7 6 11 9 8 4 2 -1 -5 -5 -3 -3 -7 -11 -10 -11 -11 -16 -17 -19 -20 -21 -22

GFSWCAN_sfc_temp_135.txt.gz
Temp
44 44 47 48 48 47 47 47 48 48 48 48 48 47 48 49 49 44 40 41 41 34 35 39 41 37 38 38 34 36 36 36 33 29 29 27 28 31 30 32 30 28 26 25 26 23 21 36 35 31 33 36 35 34
43 43 45 47 48 47 48 48 48 47 48 48 48 48 49 49 49 46 38 43 44 37 36 41 42 43 43 43 38 35 37 35 36 32 31 31 28 29 30 25 33 27 31 29 31 31 35 37 36 37 38 34 36 35
42 43 44 47 47 47 48 47 47 47 47 48 48 49 49 49 48 45 38 38 40 37 38 38 37 43 46 43 45 36 35 38 35 36 32 31 28 31 26 28 29 33 35 32 33 32 35 36 38 38 38 37 38 37
42 43 43 46 47 47 47 47 47 47 47 48 48 48 48 48 48 46 38 39 39 36 29 34 45 41 46 45 43 43 39 38 37 36 32 30 30 34 29 31 30 32 34 30 31 36 35 35 37 37 36 37 37 35
43 43 43 44 46 47 48 47 47 47 47 48 48 48 48 48 47 44 40 40 41 38 29 34 40 42 43 44 42 42 40 37 36 33 31 30 33 33 32 32 28 33 28 30 29 35 35 35 36 36 35 34 34 33
44 43 44 43 44 47 47 47 47 47 47 47 48 48 47 47 45 40 34 41 42 40 33 28 36 37 40 41 39 38 37 35 34 33 31 33 35 34 28 27 34 33 32 32 33 36 35 35 35 36 34 33 31 29
44 43 44 44 44 46 47 47 47 47 46 47 47 47 47 46 41 34 34 40 43 39 32 28 30 36 40 38 36 36 36 33 35 31 31 33 34 34 30 27 35 36 35 33 35 34 31 31 29 33 34 32 32 31
44 44 45 45 45 46 46 47 47 47 47 47 47 47 46 46 44 39 40 43 41 35 34 27 28 33 39 32 32 34 33 34 32 31 32 32 33 32 27 34 35 34 34 35 35 35 32 30 31 30 31 32 29 28
44 44 45 45 45 45 46 46 47 47 47 47 46 45 40 36 34 37 45 42 39 35 27 27 26 25 36 31 33 33 33 27 32 30 32 33 29 27 31 32 33 33 35 32 33 32 32 31 29 29 28 28 27 25
44 44 44 44 44 44 45 45 46 47 47 45 39 32 28 35 44 43 36 32 30 30 32 26 30 28 34 32 27 29 30 27 24 29 33 28 29 28 29 31 32 33 34 34 30 28 29 28 27 27 25 26 25 24
44 44 45 44 44 44 46 45 45 45 45 36 29 29 37 43 35 30 23 25 26 26 30 29 32 30 35 27 26 27 25 28 22 27 26 26 25 27 29 29 30 30 30 29 29 27 28 28 26 26 24 24 23 23
45 44 45 45 45 45 45 45 44 40 37 37 38 39 35 31 26 22 19 25 26 25 28 28 28 33 33 35 27 28 26 27 21 31 26 23 25 26 28 27 27 28 28 27 27 26 26 25 25 23 22 20 19 19
44 45 45 45 45 45 44 43 44 45 45 40 35 29 27 25 18 19 14 20 21 27 27 28 25 31 33 34 28 27 24 23 31 26 24 26 23 26 26 26 25 27 26 25 24 24 23 20 20 20 16 16 18 17
44 45 45 44 44 45 44 44 46 42 38 32 27 19 17 16 19 22 25 25 27 27 28 29 26 29 29 26 27 23 25 28 22 18 22 23 24 25 25 25 24 22 22 22 20 20 18 17 15 14 12 14 15 15
44 44 44 43 43 43 44 43 42 38 33 26 28 17 17 21 22 22 23 25 28 29 29 29 29 30 26 24 29 26 23 22 23 21 25 22 25 24 22 23 19 16 14 14 15 13 12 13 14 13 12 14 14 11
44 43 38 44 43 40 40 40 39 36 32 29 25 20 21 21 23 19 20 25 32 28 30 31 27 23 22 26 25 21 20 17 23 24 22 25 23 23 21 19 16 15 15 14 14 13 12 11 13 14 10 11 9 11
41 33 42 40 39 38 37 35 35 30 28 27 23 22 18 18 19 19 23 26 31 28 25 25 20 22 26 23 23 26 22 25 22 22 25 24 22 20 18 17 16 15 14 14 13 14 14 12 11 15 16 15 13 12
33 40 41 40 37 34 33 35 31 29 23 24 20 23 25 21 20 21 29 31 32 29 29 27 28 24 23 20 21 23 21 24 25 25 21 20 20 19 20 18 17 17 16 14 15 13 13 14 16 17 16 14 14 14
39 40 41 41 38 34 31 31 32 23 22 25 24 23 25 25 25 25 28 30 29 32 31 27 22 24 23 24 24 17 22 22 20 18 15 15 19 18 17 17 16 15 15 16 18 19 18 16 18 19 19 19 17 16
42 42 42 42 40 32 29 27 31 24 20 23 23 22 21 23 24 23 26 30 31 29 27 24 24 26 24 22 20 20 21 20 20 17 15 15 17 17 17 18 18 17 16 16 16 14 17 17 17 18 18 17 18 16
40 38 39 39 33 31 28 25 25 24 24 22 21 23 21 22 21 23 25 28 25 23 24 22 20 18 20 24 19 20 22 24 23 23 20 15 14 19 16 17 18 19 18 18 18 15 14 18 17 16 16 16 14 16
37 41 36 37 29 29 27 27 27 27 23 22 21 23 18 19 19 19 25 24 22 23 21 18 16 21 23 22 17 20 20 19 18 19 16 16 16 16 16 16 18 16 17 17 18 17 17 16 16 15 16 14 10 14
39 36 30 30 23 21 23 27 22 24 17 19 23 18 18 16 19 26 17 20 19 14 14 15 15 21 22 15 15 16 17 20 19 20 20 19 19 18 18 17 19 16 15 14 17 16 16 11 10 13 13 13 14 14
36 26 20 18 21 18 21 19 27 24 22 21 20 15 19 18 22 18 16 17 15 17 18 13 21 20 20 18 18 18 18 19 17 16 18 18 16 15 18 18 17 18 20 18 17 15 14 13 8 13 11 12 10 13
21 18 18 14 21 18 16 16 18 20 13 18 17 16 18 20 15 14 15 17 15 18 18 17 21 22 22 16 15 16 12 21 20 17 15 19 15 15 14 15 15 16 16 15 13 13 11 8 9 12 11 12 13 11
18 18 20 18 21 23 20 16 18 18 18 15 15 17 18 15 13 13 16 16 13 15 16 18 20 18 17 18 18 17 18 20 22 19 14 18 20 18 15 14 14 15 14 16 14 14 12 11 11 11 11 8 2 9
18 18 22 26 25 25 22 22 24 21 17 17 16 15 15 9 7 15 17 16 17 16 16 20 21 21 19 16 16 16 17 19 19 20 17 16 17 20 19 16 14 18 13 13 13 14 13 11 10 9 9 7 9 9
19 20 18 18 19 20 18 17 18 19 19 19 18 13 11 12 16 19 19 18 15 17 18 19 21 21 19 18 15 13 12 12 12 13 14 13 10 11 13 15 14 13 12 11 11 9 11 11 9 7 7 9 6 2
14 16 18 13 16 15 13 14 15 16 16 18 17 14 16 18 14 15 16 16 17 18 16 14 11 12 11 11 11 13 14 16 14 11 11 10 11 12 7 11 10 10 9 8 8 7 8 7 7 8 7 7 1 -1
12 17 11 6 10 12 9 10 9 8 10 12 14 15 15 14 11 10 14 17 16 14 13 13 11 13 12 13 10 10 8 7 13 17 14 11 12 11 6 8 9 8 10 10 11 12 9 5 5 3 3 2 4 4
14 11 5 4 3 1 2 1 -3 -1 0 2 -2 7 9 6 9 10 12 12 14 13 12 10 10 12 12 11 13 12 11 11 7 11 12 12 11 10 9 10 10 8 10 10 9 8 6 5 5 5 5 3 -1 1
11 8 8 8 4 2 -2 -1 -3 -2 -2 2 2 -0 4 7 5 8 10 9 13 12 10 10 11 12 13 15 16 17 14 15 11 10 10 11 11 11 9 8 7 8 8 9 8 7 7 7 5 5 4 2 -0 -2
7 5 1 -0 2 2 -1 -1 0 1 -1 -1 1 -3 -1 1 2 7 10 10 8 8 12 15 14 14 15 15 16 13 11 14 13 14 11 11 9 9 8 7 8 8 7 7 6 6 4 3 2 1 0 -1 -2 -4

GFSWCAN_sfc_temp_138.txt.gz
Temp
43 44 46 47 46 46 48 48 46 45 46 46 46 48 49 48 48 52 45 47 45 37 37 45 48 44 48 48 41 44 43 43 43 38 38 36 35 38 37 39 34 32 31 29 33 29 26 44 41 35 40 43 42 40
42 43 46 47 46 46 47 48 47 46 46 46 47 48 49 49 49 49 44 50 52 42 39 46 47 49 54 57 48 44 47 45 47 43 41 39 34 37 37 30 39 31 39 36 37 38 44 46 44 45 44 42 42 41
42 43 46 47 46 46 46 47 48 47 48 48 48 48 49 49 51 51 48 49 49 42 42 44 41 48 53 55 58 46 47 46 43 46 42 40 34 42 32 35 36 39 42 39 38 39 43 44 45 45 45 44 44 44
41 43 45 46 46 47 47 47 47 47 48 48 48 48 48 48 49 51 47 46 51 46 34 36 50 46 54 56 54 55 47 47 47 50 42 39 36 42 37 39 38 40 41 35 38 43 42 43 44 44 43 43 43 40
41 43 44 46 46 46 47 47 47 47 47 48 48 48 48 48 50 51 50 47 50 48 35 37 46 48 53 53 51 52 51 49 49 43 39 37 42 42 42 42 36 42 34 35 35 42 42 42 44 44 41 40 40 39
41 43 43 46 46 46 46 46 47 47 47 47 48 47 47 47 48 54 42 52 51 54 41 31 43 44 48 50 48 46 48 47 47 43 41 43 42 43 36 37 41 42 40 38 37 43 42 42 43 43 39 35 35 32
42 43 43 45 46 46 46 46 47 47 47 47 47 47 47 48 47 42 41 46 46 52 39 34 35 43 46 47 46 46 47 44 46 42 40 42 42 45 39 36 41 43 42 40 41 38 34 37 32 38 37 35 35 36
44 44 43 44 46 47 46 45 46 47 47 47 47 46 47 48 49 44 45 46 49 46 45 33 30 37 46 40 38 45 41 44 41 41 42 40 41 43 35 41 42 43 43 42 42 42 37 34 36 35 37 37 35 34
44 44 43 44 46 46 46 45 46 47 47 46 46 46 48 44 41 44 45 46 50 46 35 35 32 28 44 39 41 42 44 32 43 37 39 41 38 34 39 41 41 42 41 40 39 38 38 38 37 36 35 34 33 32
44 44 44 44 45 46 47 46 46 46 46 46 46 39 33 41 44 46 46 41 39 40 42 34 41 31 40 39 33 36 39 35 31 37 42 37 39 37 38 41 42 41 42 41 36 33 36 34 34 33 32 32 31 30
44 44 44 44 45 46 46 46 46 46 46 43 36 34 44 44 46 39 32 33 36 32 39 38 40 34 42 35 32 38 33 35 30 33 33 32 33 33 37 37 38 39 39 38 39 37 37 36 34 32 30 28 28 28
45 45 45 44 45 46 46 47 46 45 44 44 44 44 44 39 35 30 27 32 33 30 36 34 35 39 37 44 36 35 30 32 26 37 30 29 32 34 35 34 35 37 36 35 36 34 33 32 32 30 28 25 23 22
44 45 45 44 45 45 45 46 45 46 47 48 43 34 36 32 28 28 23 27 28 34 35 36 32 37 39 38 31 31 27 28 37 29 30 36 32 34 33 34 34 35 34 33 31 31 29 27 26 25 21 22 23 21
44 44 44 44 45 44 44 45 44 45 48 39 34 26 28 27 29 31 33 34 34 36 38 39 35 37 34 31 30 26 29 32 26 24 28 34 31 31 33 33 31 29 28 27 26 26 23 21 19 19 19 20 21 20
44 44 44 44 43 43 42 42 42 44 40 33 35 26 27 28 30 30 32 34 36 41 40 38 38 40 33 28 32 30 26 25 29 30 35 33 32 31 28 29 26 23 21 21 21 19 18 19 19 18 19 21 20 18
44 44 42 42 43 43 42 42 41 41 39 34 32 27 28 30 28 30 31 31 39 39 42 42 34 31 29 33 28 27 27 26 32 36 34 34 30 29 28 26 23 22 22 21 20 20 19 18 20 20 19 19 18 19
43 41 42 41 40 39 41 39 39 32 32 30 27 32 30 32 31 31 34 35 40 38 32 35 28 26 33 30 28 34 30 34 33 32 34 32 29 28 25 23 20 21 21 22 21 21 21 21 19 21 20 20 22 19
39 40 41 40 39 37 37 41 37 33 26 30 29 28 30 30 31 32 34 37 37 37 39 33 37 30 28 26 30 34 32 30 32 31 31 30 28 26 26 24 22 23 22 21 22 22 21 20 22 25 23 22 21 21
40 40 41 41 41 37 35 36 39 27 27 30 28 30 32 30 31 34 35 35 38 42 38 37 31 32 33 37 35 32 31 30 27 27 27 28 27 25 24 24 23 23 23 22 23 26 26 25 27 27 27 26 26 25
41 42 42 41 41 37 33 32 40 32 28 28 30 27 29 30 31 31 33 35 38 37 34 32 34 36 35 34 33 32 32 32 28 25 25 26 26 24 24 25 26 25 25 25 25 24 25 25 26 27 27 26 25 23
38 38 41 41 39 40 35 33 30 32 30 28 29 31 27 30 30 31 31 35 33 33 33 36 34 31 28 29 30 32 31 32 32 32 28 25 27 29 26 27 26 27 26 26 25 24 24 26 25 26 24 24 25 25
38 40 39 41 37 36 33 35 32 34 31 30 30 32 27 27 28 30 32 30 32 35 35 34 32 30 29 27 26 31 31 31 29 31 29 27 26 26 26 27 27 26 27 26 27 25 26 26 26 25 24 23 21 24
41 41 37 36 30 31 26 36 30 31 26 26 31 26 26 28 30 33 29 33 34 28 28 29 26 28 29 22 24 25 27 30 30 29 27 29 29 29 28 28 29 26 25 27 29 27 25 24 22 23 23 23 23 22
39 32 29 28 30 24 30 28 33 30 28 27 26 23 24 27 30 28 26 30 30 28 26 23 28 25 24 25 28 27 28 33 31 30 31 29 27 27 29 28 29 29 30 28 27 26 24 24 21 23 23 22 22 22
30 26 28 24 30 27 25 26 26 27 23 25 24 23 24 28 25 24 24 30 29 28 28 26 27 28 29 29 30 29 23 31 30 28 29 31 29 28 27 28 28 28 29 26 24 23 23 22 23 23 22 22 21 20
23 24 26 26 27 26 27 23 24 24 25 23 23 25 26 25 20 23 27 29 29 29 27 26 26 26 27 31 29 28 27 31 32 29 28 30 28 27 24 23 22 23 27 29 26 24 22 21 21 20 21 19 15 20
25 24 27 29 28 29 26 28 28 27 23 22 23 22 23 20 22 27 29 29 30 29 28 29 30 30 31 29 29 29 29 30 31 31 30 31 32 32 29 26 25 28 27 26 26 26 24 21 21 21 21 21 20 19
25 26 24 24 25 25 25 25 25 24 25 26 26 21 21 23 25 26 27 26 26 27 28 29 30 31 30 28 27 25 23 22 21 23 23 23 24 25 25 27 27 23 26 25 25 24 24 22 21 20 19 18 16 17
24 24 24 22 23 23 22 23 24 23 22 26 26 25 24 24 22 23 23 23 25 27 26 25 23 24 23 23 24 24 23 24 23 20 20 22 21 21 23 23 21 22 21 19 18 20 20 20 19 19 18 17 15 14
21 24 23 19 21 21 18 17 20 18 20 20 22 24 24 21 18 21 21 22 23 23 24 25 23 24 22 22 19 19 22 25 27 26 24 23 24 24 20 20 20 20 21 20 19 18 16 14 13 12 12 12 13 12
22 24 20 20 18 18 17 14 15 15 17 19 17 23 21 19 19 19 17 17 21 22 23 22 21 23 22 22 22 20 19 20 19 23 25 25 22 20 20 20 21 20 20 19 17 16 15 16 16 15 14 13 11 12
22 18 20 18 17 16 17 18 17 19 18 21 19 19 19 20 16 16 15 16 17 17 17 19 20 22 22 25 25 26 23 24 20 21 21 21 21 21 20 19 18 19 19 17 17 16 16 15 15 15 14 12 11 10
18 18 16 17 18 17 15 16 16 16 17 17 15 13 14 15 10 12 17 16 14 12 13 15 20 21 22 21 23 23 22 23 22 21 19 19 18 18 19 18 18 18 17 17 16 16 15 14 14 13 12 10 8 6